Wetterdaten: Sonntag, 08.05.2022
Datum Zeit Temp. Aussen Temp. o. S. Temp +5cm Feuchte Auss Luftdruck Regen Sonnenschein Regendauer Solar Windben Empfang
08.05.2022 00:00 14,3 C 13,3 C 10,0 C 88 % 1024,5 hPa 0,0 l/m 0 min 0 min 0 W/m 3,2 km/h (1 Bft) 100,00 %
08.05.2022 00:02 14,3 C 13,3 C 10,0 C 88 % 1024,5 hPa 0,0 l/m 0 min 0 min 0 W/m 3,2 km/h (1 Bft) 97,73 %
08.05.2022 00:04 14,2 C 13,3 C 10,0 C 88 % 1024,5 hPa 0,0 l/m 0 min 0 min 0 W/m 0,0 km/h (0 Bft) 100,00 %
08.05.2022 00:07 14,2 C 13,3 C 10,0 C 88 % 1024,5 hPa 0,0 l/m 0 min 0 min 0 W/m 0,0 km/h (0 Bft) 100,00 %
08.05.2022 00:08 14,2 C 13,3 C 10,0 C 88 % 1024,5 hPa 0,0 l/m 0 min 0 min 0 W/m 0,0 km/h (0 Bft) 100,00 %
08.05.2022 00:10 14,2 C 13,3 C 10,0 C 88 % 1024,4 hPa 0,0 l/m 0 min 0 min 0 W/m 0,0 km/h (0 Bft) 97,87 %
08.05.2022 00:12 14,2 C 13,3 C 9,4 C 88 % 1024,5 hPa 0,0 l/m 0 min 0 min 0 W/m 0,0 km/h (0 Bft) 100,00 %
08.05.2022 00:14 14,1 C 13,3 C 9,4 C 88 % 1024,6 hPa 0,0 l/m 0 min 0 min 0 W/m 0,0 km/h (0 Bft) 100,00 %
08.05.2022 00:16 14,1 C 13,3 C 9,4 C 88 % 1024,6 hPa 0,0 l/m 0 min 0 min 0 W/m 0,0 km/h (0 Bft) 100,00 %
08.05.2022 00:18 14,1 C 13,3 C 9,4 C 88 % 1024,5 hPa 0,0 l/m 0 min 0 min 0 W/m 0,0 km/h (0 Bft) 100,00 %
08.05.2022 00:20 14,1 C 13,3 C 9,4 C 88 % 1024,5 hPa 0,0 l/m 0 min 0 min 0 W/m 0,0 km/h (0 Bft) 100,00 %
08.05.2022 00:22 14,1 C 13,3 C 9,4 C 89 % 1024,6 hPa 0,0 l/m 0 min 0 min 0 W/m 0,0 km/h (0 Bft) 100,00 %
08.05.2022 00:24 14,1 C 12,8 C 9,4 C 89 % 1024,6 hPa 0,0 l/m 0 min 0 min 0 W/m 0,0 km/h (0 Bft) 96,55 %
08.05.2022 00:26 14,1 C 12,8 C 9,4 C 89 % 1024,7 hPa 0,0 l/m 0 min 0 min 0 W/m 0,0 km/h (0 Bft) 100,00 %
08.05.2022 00:28 14,1 C 12,8 C 9,4 C 89 % 1024,7 hPa 0,0 l/m 0 min 0 min 0 W/m 0,0 km/h (0 Bft) 100,00 %
08.05.2022 00:30 14,1 C 12,8 C 9,4 C 89 % 1024,7 hPa 0,0 l/m 0 min 0 min 0 W/m 0,0 km/h (0 Bft) 100,00 %
08.05.2022 00:32 14,1 C 12,8 C 9,4 C 89 % 1024,8 hPa 0,0 l/m 0 min 0 min 0 W/m 3,2 km/h (1 Bft) 97,87 %
08.05.2022 00:34 14,1 C 12,8 C 9,4 C 89 % 1024,8 hPa 0,0 l/m 0 min 0 min 0 W/m 3,2 km/h (1 Bft) 97,14 %
08.05.2022 00:36 14,1 C 12,8 C 9,4 C 89 % 1024,8 hPa 0,0 l/m 0 min 0 min 0 W/m 3,2 km/h (1 Bft) 98,28 %
08.05.2022 00:38 14,0 C 12,8 C 9,4 C 89 % 1024,8 hPa 0,0 l/m 0 min 0 min 0 W/m 0,0 km/h (0 Bft) 97,87 %
08.05.2022 00:40 14,0 C 12,8 C 9,4 C 89 % 1024,9 hPa 0,0 l/m 0 min 0 min 0 W/m 3,2 km/h (1 Bft) 97,87 %
08.05.2022 00:42 14,0 C 12,8 C 9,4 C 90 % 1024,8 hPa 0,0 l/m 0 min 0 min 0 W/m 3,2 km/h (1 Bft) 94,29 %
08.05.2022 00:44 14,0 C 13,3 C 9,4 C 90 % 1024,9 hPa 0,0 l/m 0 min 0 min 0 W/m 3,2 km/h (1 Bft) 97,87 %
08.05.2022 00:46 14,0 C 12,8 C 9,4 C 90 % 1024,9 hPa 0,0 l/m 0 min 0 min 0 W/m 3,2 km/h (1 Bft) 98,28 %
08.05.2022 00:48 14,0 C 12,8 C 9,4 C 90 % 1024,9 hPa 0,0 l/m 0 min 0 min 0 W/m 6,4 km/h (2 Bft) 97,22 %
08.05.2022 00:50 14,0 C 12,8 C 9,4 C 90 % 1024,9 hPa 0,0 l/m 0 min 0 min 0 W/m 3,2 km/h (1 Bft) 97,83 %
08.05.2022 00:52 14,0 C 12,8 C 9,4 C 90 % 1024,9 hPa 0,0 l/m 0 min 0 min 0 W/m 3,2 km/h (1 Bft) 96,36 %
08.05.2022 00:54 14,0 C 12,8 C 9,4 C 90 % 1024,9 hPa 0,0 l/m 0 min 0 min 0 W/m 3,2 km/h (1 Bft) 95,92 %
08.05.2022 00:56 14,0 C 12,8 C 9,4 C 90 % 1024,9 hPa 0,0 l/m 0 min 0 min 0 W/m 6,4 km/h (2 Bft) 95,74 %
08.05.2022 00:58 14,0 C 12,8 C 9,4 C 91 % 1024,9 hPa 0,0 l/m 0 min 0 min 0 W/m 3,2 km/h (1 Bft) 95,83 %
08.05.2022 01:00 14,0 C 12,8 C 9,4 C 91 % 1025,0 hPa 0,0 l/m 0 min 0 min 0 W/m 3,2 km/h (1 Bft) 94,29 %
08.05.2022 01:02 14,0 C 12,8 C 9,4 C 91 % 1025,0 hPa 0,0 l/m 0 min 0 min 0 W/m 3,2 km/h (1 Bft) 96,36 %
08.05.2022 01:04 14,0 C 12,8 C 9,4 C 91 % 1025,0 hPa 0,0 l/m 0 min 0 min 0 W/m 3,2 km/h (1 Bft) 98,00 %
08.05.2022 01:06 14,0 C 12,8 C 9,4 C 91 % 1025,0 hPa 0,0 l/m 0 min 0 min 0 W/m 6,4 km/h (2 Bft) 91,30 %
08.05.2022 01:08 14,0 C 12,8 C 9,4 C 91 % 1025,0 hPa 0,0 l/m 0 min 0 min 0 W/m 6,4 km/h (2 Bft) 93,88 %
08.05.2022 01:10 14,0 C 12,8 C 10,0 C 91 % 1025,0 hPa 0,0 l/m 0 min 0 min 0 W/m 6,4 km/h (2 Bft) 97,83 %
08.05.2022 01:12 14,1 C 13,3 C 10,0 C 91 % 1025,1 hPa 0,0 l/m 0 min 0 min 0 W/m 3,2 km/h (1 Bft) 94,29 %
08.05.2022 01:14 14,1 C 13,3 C 10,0 C 91 % 1025,1 hPa 0,0 l/m 0 min 0 min 0 W/m 12,9 km/h (3 Bft) 96,36 %
08.05.2022 01:16 14,1 C 13,3 C 10,0 C 91 % 1025,1 hPa 0,0 l/m 0 min 0 min 0 W/m 9,7 km/h (2 Bft) 97,96 %
08.05.2022 01:18 14,1 C 13,3 C 10,0 C 92 % 1025,1 hPa 0,0 l/m 0 min 0 min 0 W/m 9,7 km/h (2 Bft) 97,96 %
08.05.2022 01:20 14,1 C 13,3 C 10,0 C 92 % 1025,1 hPa 0,0 l/m 0 min 0 min 0 W/m 6,4 km/h (2 Bft) 97,14 %
08.05.2022 01:22 14,1 C 13,3 C 10,0 C 92 % 1025,2 hPa 0,0 l/m 0 min 0 min 0 W/m 3,2 km/h (1 Bft) 94,44 %
08.05.2022 01:24 14,1 C 13,3 C 10,0 C 92 % 1025,2 hPa 0,0 l/m 0 min 0 min 0 W/m 6,4 km/h (2 Bft) 92,00 %
08.05.2022 01:26 14,1 C 13,3 C 10,0 C 92 % 1025,2 hPa 0,0 l/m 0 min 0 min 0 W/m 3,2 km/h (1 Bft) 95,83 %
08.05.2022 01:28 14,1 C 13,3 C 10,0 C 92 % 1025,2 hPa 0,0 l/m 0 min 0 min 0 W/m 16,1 km/h (3 Bft) 97,14 %
08.05.2022 01:30 14,1 C 13,3 C 10,0 C 92 % 1025,2 hPa 0,0 l/m 0 min 0 min 0 W/m 6,4 km/h (2 Bft) 94,44 %
08.05.2022 01:32 14,1 C 13,3 C 10,0 C 92 % 1025,2 hPa 0,0 l/m 0 min 0 min 0 W/m 6,4 km/h (2 Bft) 96,00 %
08.05.2022 01:34 14,1 C 13,3 C 10,0 C 92 % 1025,2 hPa 0,0 l/m 0 min 0 min 0 W/m 3,2 km/h (1 Bft) 95,74 %
08.05.2022 01:36 14,1 C 13,3 C 10,0 C 92 % 1025,3 hPa 0,0 l/m 0 min 0 min 0 W/m 9,7 km/h (2 Bft) 95,83 %
08.05.2022 01:38 14,1 C 13,3 C 10,0 C 92 % 1025,3 hPa 0,0 l/m 0 min 0 min 0 W/m 9,7 km/h (2 Bft) 95,74 %
08.05.2022 01:40 14,1 C 13,3 C 10,0 C 92 % 1025,3 hPa 0,0 l/m 0 min 0 min 0 W/m 16,1 km/h (3 Bft) 91,49 %
08.05.2022 01:42 14,1 C 13,3 C 10,0 C 93 % 1025,2 hPa 0,0 l/m 0 min 0 min 0 W/m 3,2 km/h (1 Bft) 97,14 %
08.05.2022 01:44 14,1 C 13,3 C 10,0 C 93 % 1025,2 hPa 0,0 l/m 0 min 0 min 0 W/m 6,4 km/h (2 Bft) 93,62 %
08.05.2022 01:46 14,1 C 13,3 C 10,0 C 93 % 1025,3 hPa 0,0 l/m 0 min 0 min 0 W/m 12,9 km/h (3 Bft) 92,59 %
08.05.2022 01:48 14,2 C 13,3 C 10,0 C 93 % 1025,3 hPa 0,0 l/m 0 min 0 min 0 W/m 6,4 km/h (2 Bft) 96,00 %
08.05.2022 01:50 14,2 C 13,3 C 10,0 C 93 % 1025,3 hPa 0,0 l/m 0 min 0 min 0 W/m 12,9 km/h (3 Bft) 97,92 %
08.05.2022 01:52 14,2 C 13,3 C 10,0 C 93 % 1025,2 hPa 0,0 l/m 0 min 0 min 0 W/m 6,4 km/h (2 Bft) 97,14 %
08.05.2022 01:54 14,2 C 13,3 C 10,0 C 93 % 1025,2 hPa 0,0 l/m 0 min 0 min 0 W/m 9,7 km/h (2 Bft) 97,87 %
08.05.2022 01:56 14,2 C 13,3 C 10,0 C 93 % 1025,3 hPa 0,0 l/m 0 min 0 min 0 W/m 9,7 km/h (2 Bft) 97,87 %
08.05.2022 01:58 14,2 C 13,3 C 10,0 C 93 % 1025,2 hPa 0,0 l/m 0 min 0 min 0 W/m 6,4 km/h (2 Bft) 96,30 %
08.05.2022 02:00 14,1 C 13,3 C 10,0 C 92 % 1025,2 hPa 0,0 l/m 0 min 0 min 0 W/m 6,4 km/h (2 Bft) 98,00 %
08.05.2022 02:02 14,1 C 13,3 C 10,0 C 92 % 1025,2 hPa 0,0 l/m 0 min 0 min 0 W/m 9,7 km/h (2 Bft) 97,92 %
08.05.2022 02:04 14,1 C 13,3 C 10,0 C 92 % 1025,2 hPa 0,0 l/m 0 min 0 min 0 W/m 12,9 km/h (3 Bft) 97,14 %
08.05.2022 02:06 14,0 C 13,3 C 10,0 C 92 % 1025,2 hPa 0,0 l/m 0 min 0 min 0 W/m 9,7 km/h (2 Bft) 100,00 %
08.05.2022 02:08 13,9 C 13,3 C 10,0 C 91 % 1025,2 hPa 0,0 l/m 0 min 0 min 0 W/m 16,1 km/h (3 Bft) 97,62 %
08.05.2022 02:10 13,9 C 13,3 C 10,0 C 91 % 1025,2 hPa 0,0 l/m 0 min 0 min 0 W/m 29,0 km/h (5 Bft) 100,00 %
08.05.2022 02:12 13,8 C 13,3 C 10,0 C 91 % 1025,2 hPa 0,0 l/m 0 min 0 min 0 W/m 12,9 km/h (3 Bft) 100,00 %
08.05.2022 02:14 13,8 C 13,3 C 10,0 C 90 % 1025,2 hPa 0,0 l/m 0 min 0 min 0 W/m 12,9 km/h (3 Bft) 100,00 %
08.05.2022 02:16 13,8 C 13,3 C 10,0 C 90 % 1025,2 hPa 0,0 l/m 0 min 0 min 0 W/m 16,1 km/h (3 Bft) 97,96 %
08.05.2022 02:18 13,7 C 12,8 C 9,4 C 89 % 1025,2 hPa 0,0 l/m 0 min 0 min 0 W/m 16,1 km/h (3 Bft) 100,00 %
08.05.2022 02:20 13,7 C 12,8 C 9,4 C 89 % 1025,2 hPa 0,0 l/m 0 min 0 min 0 W/m 16,1 km/h (3 Bft) 94,44 %
08.05.2022 02:22 13,6 C 12,8 C 9,4 C 88 % 1025,2 hPa 0,0 l/m 0 min 0 min 0 W/m 16,1 km/h (3 Bft) 98,00 %
08.05.2022 02:24 13,6 C 12,8 C 9,4 C 88 % 1025,2 hPa 0,0 l/m 0 min 0 min 0 W/m 9,7 km/h (2 Bft) 97,92 %
08.05.2022 02:26 13,6 C 12,8 C 9,4 C 87 % 1025,2 hPa 0,0 l/m 0 min 0 min 0 W/m 3,2 km/h (1 Bft) 100,00 %
08.05.2022 02:28 13,5 C 12,8 C 9,4 C 87 % 1025,2 hPa 0,0 l/m 0 min 0 min 0 W/m 3,2 km/h (1 Bft) 96,30 %
08.05.2022 02:30 13,4 C 12,8 C 9,4 C 87 % 1025,2 hPa 0,0 l/m 0 min 0 min 0 W/m 3,2 km/h (1 Bft) 96,00 %
08.05.2022 02:32 13,4 C 12,8 C 9,4 C 86 % 1025,2 hPa 0,0 l/m 0 min 0 min 0 W/m 6,4 km/h (2 Bft) 95,74 %
08.05.2022 02:34 13,3 C 12,2 C 8,9 C 86 % 1025,2 hPa 0,0 l/m 0 min 0 min 0 W/m 3,2 km/h (1 Bft) 97,92 %
08.05.2022 02:36 13,3 C 12,2 C 8,9 C 86 % 1025,2 hPa 0,0 l/m 0 min 0 min 0 W/m 9,7 km/h (2 Bft) 97,87 %
08.05.2022 02:38 13,3 C 12,2 C 8,9 C 86 % 1025,2 hPa 0,0 l/m 0 min 0 min 0 W/m 6,4 km/h (2 Bft) 97,14 %
08.05.2022 02:40 13,3 C 12,2 C 8,9 C 86 % 1025,2 hPa 0,0 l/m 0 min 0 min 0 W/m 6,4 km/h (2 Bft) 97,87 %
08.05.2022 02:42 13,2 C 12,2 C 8,9 C 86 % 1025,2 hPa 0,0 l/m 0 min 0 min 0 W/m 16,1 km/h (3 Bft) 97,87 %
08.05.2022 02:44 13,2 C 12,2 C 8,9 C 86 % 1025,2 hPa 0,0 l/m 0 min 0 min 0 W/m 6,4 km/h (2 Bft) 97,87 %
08.05.2022 02:46 13,1 C 12,2 C 8,9 C 86 % 1025,2 hPa 0,0 l/m 0 min 0 min 0 W/m 3,2 km/h (1 Bft) 97,83 %
08.05.2022 02:48 13,1 C 12,2 C 8,9 C 86 % 1025,2 hPa 0,0 l/m 0 min 0 min 0 W/m 6,4 km/h (2 Bft) 97,87 %
08.05.2022 02:50 13,1 C 12,2 C 8,9 C 86 % 1025,2 hPa 0,0 l/m 0 min 0 min 0 W/m 3,2 km/h (1 Bft) 100,00 %
08.05.2022 02:52 13,0 C 12,2 C 8,9 C 86 % 1025,3 hPa 0,0 l/m 0 min 0 min 0 W/m 6,4 km/h (2 Bft) 100,00 %
08.05.2022 02:54 13,0 C 12,2 C 8,9 C 86 % 1025,3 hPa 0,0 l/m 0 min 0 min 0 W/m 3,2 km/h (1 Bft) 100,00 %
08.05.2022 02:56 12,9 C 12,2 C 8,9 C 86 % 1025,3 hPa 0,0 l/m 0 min 0 min 0 W/m 6,4 km/h (2 Bft) 100,00 %
08.05.2022 02:58 12,9 C 12,2 C 8,9 C 86 % 1025,4 hPa 0,0 l/m 0 min 0 min 0 W/m 6,4 km/h (2 Bft) 100,00 %
08.05.2022 03:00 12,8 C 11,7 C 8,9 C 86 % 1025,3 hPa 0,0 l/m 0 min 0 min 0 W/m 16,1 km/h (3 Bft) 97,87 %
08.05.2022 03:02 12,8 C 12,2 C 8,9 C 86 % 1025,4 hPa 0,0 l/m 0 min 0 min 0 W/m 19,3 km/h (3 Bft) 100,00 %
08.05.2022 03:04 12,8 C 11,7 C 8,9 C 86 % 1025,3 hPa 0,0 l/m 0 min 0 min 0 W/m 6,4 km/h (2 Bft) 100,00 %
08.05.2022 03:06 12,7 C 11,7 C 8,9 C 86 % 1025,4 hPa 0,0 l/m 0 min 0 min 0 W/m 6,4 km/h (2 Bft) 100,00 %
08.05.2022 03:08 12,7 C 11,7 C 8,9 C 86 % 1025,4 hPa 0,0 l/m 0 min 0 min 0 W/m 9,7 km/h (2 Bft) 100,00 %
08.05.2022 03:10 12,7 C 11,7 C 8,9 C 86 % 1025,4 hPa 0,0 l/m 0 min 0 min 0 W/m 6,4 km/h (2 Bft) 97,83 %
08.05.2022 03:12 12,7 C 12,2 C 8,9 C 86 % 1025,4 hPa 0,0 l/m 0 min 0 min 0 W/m 9,7 km/h (2 Bft) 97,87 %
08.05.2022 03:14 12,7 C 12,2 C 8,9 C 86 % 1025,4 hPa 0,0 l/m 0 min 0 min 0 W/m 6,4 km/h (2 Bft) 100,00 %
08.05.2022 03:16 12,7 C 12,2 C 8,9 C 86 % 1025,4 hPa 0,0 l/m 0 min 0 min 0 W/m 3,2 km/h (1 Bft) 100,00 %
08.05.2022 03:18 12,7 C 12,2 C 8,9 C 86 % 1025,4 hPa 0,0 l/m 0 min 0 min 0 W/m 6,4 km/h (2 Bft) 100,00 %
08.05.2022 03:20 12,7 C 12,2 C 8,9 C 86 % 1025,5 hPa 0,0 l/m 0 min 0 min 0 W/m 6,4 km/h (2 Bft) 100,00 %
08.05.2022 03:22 12,7 C 12,2 C 8,9 C 86 % 1025,5 hPa 0,0 l/m 0 min 0 min 0 W/m 6,4 km/h (2 Bft) 97,83 %
08.05.2022 03:24 12,7 C 12,2 C 8,9 C 85 % 1025,5 hPa 0,0 l/m 0 min 0 min 0 W/m 3,2 km/h (1 Bft) 100,00 %
08.05.2022 03:26 12,7 C 12,2 C 8,9 C 85 % 1025,5 hPa 0,0 l/m 0 min 0 min 0 W/m 6,4 km/h (2 Bft) 100,00 %
08.05.2022 03:28 12,7 C 12,2 C 8,9 C 85 % 1025,5 hPa 0,0 l/m 0 min 0 min 0 W/m 9,7 km/h (2 Bft) 100,00 %
08.05.2022 03:30 12,7 C 12,2 C 8,9 C 85 % 1025,5 hPa 0,0 l/m 0 min 0 min 0 W/m 6,4 km/h (2 Bft) 100,00 %
08.05.2022 03:32 12,7 C 12,2 C 8,9 C 85 % 1025,5 hPa 0,0 l/m 0 min 0 min 0 W/m 9,7 km/h (2 Bft) 100,00 %
08.05.2022 03:34 12,7 C 12,2 C 8,9 C 85 % 1025,5 hPa 0,0 l/m 0 min 0 min 0 W/m 12,9 km/h (3 Bft) 100,00 %
08.05.2022 03:36 12,8 C 12,2 C 8,9 C 84 % 1025,5 hPa 0,0 l/m 0 min 0 min 0 W/m 6,4 km/h (2 Bft) 98,31 %
08.05.2022 03:38 12,8 C 12,2 C 8,9 C 84 % 1025,6 hPa 0,0 l/m 0 min 0 min 0 W/m 6,4 km/h (2 Bft) 100,00 %
08.05.2022 03:40 12,8 C 12,2 C 8,9 C 84 % 1025,5 hPa 0,0 l/m 0 min 0 min 0 W/m 6,4 km/h (2 Bft) 97,87 %
08.05.2022 03:42 12,8 C 12,2 C 8,9 C 84 % 1025,6 hPa 0,0 l/m 0 min 0 min 0 W/m 12,9 km/h (3 Bft) 100,00 %
08.05.2022 03:44 12,8 C 12,2 C 8,9 C 84 % 1025,6 hPa 0,0 l/m 0 min 0 min 0 W/m 12,9 km/h (3 Bft) 100,00 %
08.05.2022 03:46 12,8 C 12,2 C 8,9 C 84 % 1025,6 hPa 0,0 l/m 0 min 0 min 0 W/m 9,7 km/h (2 Bft) 100,00 %
08.05.2022 03:48 12,9 C 12,2 C 8,9 C 84 % 1025,6 hPa 0,0 l/m 0 min 0 min 0 W/m 16,1 km/h (3 Bft) 97,87 %
08.05.2022 03:50 12,9 C 12,2 C 8,9 C 84 % 1025,5 hPa 0,0 l/m 0 min 0 min 0 W/m 9,7 km/h (2 Bft) 97,87 %
08.05.2022 03:52 12,9 C 12,2 C 8,9 C 84 % 1025,6 hPa 0,0 l/m 0 min 0 min 0 W/m 6,4 km/h (2 Bft) 100,00 %
08.05.2022 03:54 12,9 C 12,2 C 8,9 C 84 % 1025,6 hPa 0,0 l/m 0 min 0 min 0 W/m 9,7 km/h (2 Bft) 97,87 %
08.05.2022 03:56 12,9 C 12,2 C 8,9 C 84 % 1025,6 hPa 0,0 l/m 0 min 0 min 0 W/m 9,7 km/h (2 Bft) 97,83 %
08.05.2022 03:58 12,9 C 12,2 C 8,9 C 84 % 1025,6 hPa 0,0 l/m 0 min 0 min 0 W/m 16,1 km/h (3 Bft) 97,87 %
08.05.2022 04:00 12,9 C 12,2 C 8,9 C 84 % 1025,6 hPa 0,0 l/m 0 min 0 min 0 W/m 9,7 km/h (2 Bft) 95,74 %
08.05.2022 04:05 12,9 C 12,2 C 8,9 C 84 % 1025,6 hPa 0,0 l/m 0 min 0 min 0 W/m 16,1 km/h (3 Bft) 97,33 %
08.05.2022 04:06 12,9 C 12,2 C 8,9 C 84 % 1025,6 hPa 0,0 l/m 0 min 0 min 0 W/m 9,7 km/h (2 Bft) 94,74 %
08.05.2022 04:08 12,9 C 12,2 C 8,9 C 84 % 1025,7 hPa 0,0 l/m 0 min 0 min 0 W/m 12,9 km/h (3 Bft) 93,62 %
08.05.2022 04:10 12,8 C 12,2 C 8,9 C 84 % 1025,6 hPa 0,0 l/m 0 min 0 min 0 W/m 9,7 km/h (2 Bft) 91,49 %
08.05.2022 04:12 12,8 C 12,2 C 8,9 C 84 % 1025,7 hPa 0,0 l/m 0 min 0 min 0 W/m 12,9 km/h (3 Bft) 93,62 %
08.05.2022 04:14 12,8 C 12,2 C 8,9 C 84 % 1025,6 hPa 0,0 l/m 0 min 0 min 0 W/m 9,7 km/h (2 Bft) 93,48 %
08.05.2022 04:16 12,8 C 12,2 C 8,9 C 83 % 1025,6 hPa 0,0 l/m 0 min 0 min 0 W/m 9,7 km/h (2 Bft) 93,62 %
08.05.2022 04:18 12,8 C 12,2 C 8,9 C 83 % 1025,6 hPa 0,0 l/m 0 min 0 min 0 W/m 16,1 km/h (3 Bft) 91,49 %
08.05.2022 04:20 12,8 C 12,2 C 8,9 C 83 % 1025,7 hPa 0,0 l/m 0 min 0 min 0 W/m 6,4 km/h (2 Bft) 93,62 %
08.05.2022 04:22 12,8 C 12,2 C 8,9 C 84 % 1025,6 hPa 0,0 l/m 0 min 0 min 0 W/m 12,9 km/h (3 Bft) 91,49 %
08.05.2022 04:24 12,8 C 12,2 C 8,9 C 84 % 1025,7 hPa 0,0 l/m 0 min 0 min 0 W/m 9,7 km/h (2 Bft) 93,48 %
08.05.2022 04:26 12,7 C 12,2 C 8,9 C 84 % 1025,7 hPa 0,0 l/m 0 min 0 min 0 W/m 3,2 km/h (1 Bft) 93,62 %
08.05.2022 04:28 12,7 C 12,2 C 8,9 C 84 % 1025,7 hPa 0,0 l/m 0 min 0 min 0 W/m 9,7 km/h (2 Bft) 93,62 %
08.05.2022 04:30 12,7 C 12,2 C 8,9 C 83 % 1025,7 hPa 0,0 l/m 0 min 0 min 0 W/m 16,1 km/h (3 Bft) 93,62 %
08.05.2022 04:32 12,7 C 12,2 C 8,9 C 83 % 1025,6 hPa 0,0 l/m 0 min 0 min 0 W/m 12,9 km/h (3 Bft) 91,49 %
08.05.2022 04:34 12,7 C 12,2 C 8,3 C 84 % 1025,6 hPa 0,0 l/m 0 min 0 min 0 W/m 6,4 km/h (2 Bft) 93,62 %
08.05.2022 04:36 12,7 C 12,2 C 8,3 C 84 % 1025,7 hPa 0,0 l/m 0 min 0 min 0 W/m 9,7 km/h (2 Bft) 93,48 %
08.05.2022 04:38 12,6 C 11,7 C 8,3 C 84 % 1025,7 hPa 0,0 l/m 0 min 0 min 0 W/m 6,4 km/h (2 Bft) 95,74 %
08.05.2022 04:40 12,6 C 11,7 C 8,3 C 84 % 1025,7 hPa 0,0 l/m 0 min 0 min 0 W/m 6,4 km/h (2 Bft) 97,87 %
08.05.2022 04:42 12,6 C 11,7 C 8,3 C 84 % 1025,6 hPa 0,0 l/m 0 min 0 min 0 W/m 12,9 km/h (3 Bft) 95,74 %
08.05.2022 04:44 12,6 C 11,7 C 8,3 C 84 % 1025,7 hPa 0,0 l/m 0 min 0 min 0 W/m 6,4 km/h (2 Bft) 97,87 %
08.05.2022 04:46 12,6 C 11,7 C 8,3 C 84 % 1025,7 hPa 0,0 l/m 0 min 0 min 0 W/m 6,4 km/h (2 Bft) 97,87 %
08.05.2022 04:48 12,6 C 11,7 C 8,3 C 84 % 1025,7 hPa 0,0 l/m 0 min 0 min 0 W/m 6,4 km/h (2 Bft) 97,83 %
08.05.2022 04:50 12,5 C 11,7 C 8,3 C 84 % 1025,7 hPa 0,0 l/m 0 min 0 min 0 W/m 12,9 km/h (3 Bft) 97,87 %
08.05.2022 04:52 12,5 C 11,7 C 8,3 C 85 % 1025,7 hPa 0,0 l/m 0 min 0 min 0 W/m 12,9 km/h (3 Bft) 95,74 %
08.05.2022 04:54 12,4 C 11,7 C 8,3 C 85 % 1025,6 hPa 0,0 l/m 0 min 0 min 0 W/m 3,2 km/h (1 Bft) 95,74 %
08.05.2022 04:56 12,4 C 11,7 C 8,3 C 85 % 1025,7 hPa 0,0 l/m 0 min 0 min 0 W/m 12,9 km/h (3 Bft) 97,87 %
08.05.2022 04:58 12,4 C 11,7 C 8,3 C 85 % 1025,7 hPa 0,0 l/m 0 min 0 min 0 W/m 12,9 km/h (3 Bft) 97,87 %
08.05.2022 05:00 12,4 C 11,7 C 8,3 C 85 % 1025,7 hPa 0,0 l/m 0 min 0 min 0 W/m 12,9 km/h (3 Bft) 97,83 %
08.05.2022 05:02 12,3 C 11,7 C 8,3 C 85 % 1025,7 hPa 0,0 l/m 0 min 0 min 0 W/m 12,9 km/h (3 Bft) 100,00 %
08.05.2022 05:04 12,3 C 11,7 C 8,3 C 85 % 1025,7 hPa 0,0 l/m 0 min 0 min 0 W/m 3,2 km/h (1 Bft) 100,00 %
08.05.2022 05:06 12,3 C 11,7 C 8,3 C 85 % 1025,7 hPa 0,0 l/m 0 min 0 min 0 W/m 6,4 km/h (2 Bft) 95,74 %
08.05.2022 05:08 12,3 C 11,7 C 8,3 C 85 % 1025,7 hPa 0,0 l/m 0 min 0 min 0 W/m 9,7 km/h (2 Bft) 100,00 %
08.05.2022 05:10 12,3 C 11,7 C 8,3 C 86 % 1025,7 hPa 0,0 l/m 0 min 0 min 0 W/m 12,9 km/h (3 Bft) 100,00 %
08.05.2022 05:12 12,3 C 11,7 C 8,3 C 86 % 1025,8 hPa 0,0 l/m 0 min 0 min 0 W/m 6,4 km/h (2 Bft) 97,83 %
08.05.2022 05:14 12,2 C 11,7 C 8,3 C 86 % 1025,8 hPa 0,0 l/m 0 min 0 min 0 W/m 12,9 km/h (3 Bft) 100,00 %
08.05.2022 05:16 12,2 C 11,7 C 8,3 C 86 % 1025,8 hPa 0,0 l/m 0 min 0 min 0 W/m 9,7 km/h (2 Bft) 100,00 %
08.05.2022 05:18 12,2 C 11,7 C 8,3 C 86 % 1025,8 hPa 0,0 l/m 0 min 0 min 0 W/m 16,1 km/h (3 Bft) 100,00 %
08.05.2022 05:20 12,2 C 11,7 C 8,3 C 86 % 1025,8 hPa 0,0 l/m 0 min 0 min 0 W/m 9,7 km/h (2 Bft) 100,00 %
08.05.2022 05:22 12,2 C 11,7 C 8,3 C 86 % 1025,8 hPa 0,0 l/m 0 min 0 min 0 W/m 9,7 km/h (2 Bft) 97,87 %
08.05.2022 05:24 12,2 C 11,7 C 8,3 C 86 % 1025,9 hPa 0,0 l/m 0 min 0 min 0 W/m 6,4 km/h (2 Bft) 100,00 %
08.05.2022 05:26 12,2 C 11,7 C 8,3 C 86 % 1025,9 hPa 0,0 l/m 0 min 0 min 0 W/m 9,7 km/h (2 Bft) 100,00 %
08.05.2022 05:28 12,2 C 11,7 C 8,3 C 87 % 1025,9 hPa 0,0 l/m 0 min 0 min 0 W/m 9,7 km/h (2 Bft) 100,00 %
08.05.2022 05:30 12,2 C 11,7 C 8,3 C 87 % 1025,9 hPa 0,0 l/m 0 min 0 min 0 W/m 3,2 km/h (1 Bft) 97,87 %
08.05.2022 05:32 12,2 C 11,7 C 8,3 C 87 % 1025,9 hPa 0,0 l/m 0 min 0 min 0 W/m 6,4 km/h (2 Bft) 97,87 %
08.05.2022 05:34 12,1 C 11,7 C 8,3 C 87 % 1025,9 hPa 0,0 l/m 0 min 0 min 0 W/m 9,7 km/h (2 Bft) 100,00 %
08.05.2022 05:36 12,1 C 11,7 C 8,3 C 87 % 1026,0 hPa 0,0 l/m 0 min 0 min 0 W/m 12,9 km/h (3 Bft) 100,00 %
08.05.2022 05:38 12,1 C 11,7 C 8,3 C 87 % 1025,9 hPa 0,0 l/m 0 min 0 min 0 W/m 6,4 km/h (2 Bft) 100,00 %
08.05.2022 05:40 12,1 C 11,7 C 8,3 C 87 % 1025,9 hPa 0,0 l/m 0 min 0 min 0 W/m 6,4 km/h (2 Bft) 100,00 %
08.05.2022 05:42 12,1 C 11,7 C 8,3 C 87 % 1026,0 hPa 0,0 l/m 0 min 0 min 0 W/m 9,7 km/h (2 Bft) 97,87 %
08.05.2022 05:44 12,1 C 11,7 C 7,8 C 87 % 1025,9 hPa 0,0 l/m 0 min 0 min 0 W/m 6,4 km/h (2 Bft) 97,87 %
08.05.2022 05:46 12,1 C 11,7 C 8,3 C 87 % 1025,9 hPa 0,0 l/m 0 min 0 min 0 W/m 6,4 km/h (2 Bft) 100,00 %
08.05.2022 05:48 12,0 C 11,1 C 7,8 C 87 % 1026,0 hPa 0,0 l/m 0 min 0 min 0 W/m 12,9 km/h (3 Bft) 100,00 %
08.05.2022 05:50 12,0 C 11,1 C 7,8 C 87 % 1026,0 hPa 0,0 l/m 0 min 0 min 0 W/m 9,7 km/h (2 Bft) 100,00 %
08.05.2022 05:52 12,0 C 11,1 C 7,8 C 87 % 1026,0 hPa 0,0 l/m 0 min 0 min 0 W/m 12,9 km/h (3 Bft) 100,00 %
08.05.2022 05:54 11,9 C 11,1 C 7,8 C 87 % 1026,0 hPa 0,0 l/m 0 min 0 min 0 W/m 3,2 km/h (1 Bft) 97,87 %
08.05.2022 05:56 11,9 C 11,1 C 7,8 C 87 % 1026,0 hPa 0,0 l/m 0 min 0 min 0 W/m 12,9 km/h (3 Bft) 97,87 %
08.05.2022 05:58 11,9 C 11,1 C 7,8 C 87 % 1026,0 hPa 0,0 l/m 0 min 0 min 0 W/m 12,9 km/h (3 Bft) 97,83 %
08.05.2022 06:00 11,9 C 11,1 C 7,8 C 87 % 1026,0 hPa 0,0 l/m 0 min 0 min 0 W/m 9,7 km/h (2 Bft) 95,74 %
08.05.2022 06:02 11,8 C 11,1 C 7,8 C 87 % 1026,0 hPa 0,0 l/m 0 min 0 min 0 W/m 16,1 km/h (3 Bft) 93,62 %
08.05.2022 06:04 11,8 C 11,1 C 7,8 C 87 % 1026,0 hPa 0,0 l/m 0 min 0 min 0 W/m 12,9 km/h (3 Bft) 97,87 %
08.05.2022 06:11 11,7 C 11,1 C 7,8 C 87 % 1026,0 hPa 0,0 l/m 0 min 0 min 2 W/m 6,4 km/h (2 Bft) 96,55 %
08.05.2022 06:12 11,7 C 11,1 C 7,8 C 87 % 1026,0 hPa 0,0 l/m 0 min 0 min 5 W/m 3,2 km/h (1 Bft) 95,83 %
08.05.2022 06:14 11,7 C 11,1 C 7,8 C 87 % 1026,0 hPa 0,0 l/m 0 min 0 min 5 W/m 6,4 km/h (2 Bft) 95,74 %
08.05.2022 06:16 11,7 C 11,1 C 7,8 C 87 % 1026,1 hPa 0,0 l/m 0 min 0 min 5 W/m 16,1 km/h (3 Bft) 95,65 %
08.05.2022 06:18 11,6 C 11,1 C 7,8 C 86 % 1026,1 hPa 0,0 l/m 0 min 0 min 5 W/m 9,7 km/h (2 Bft) 97,87 %
08.05.2022 06:20 11,6 C 11,1 C 7,8 C 86 % 1026,1 hPa 0,0 l/m 0 min 0 min 7 W/m 9,7 km/h (2 Bft) 97,87 %
08.05.2022 06:22 11,6 C 11,1 C 7,8 C 86 % 1026,1 hPa 0,0 l/m 0 min 0 min 7 W/m 16,1 km/h (3 Bft) 97,87 %
08.05.2022 06:26 11,6 C 11,1 C 7,8 C 86 % 1026,1 hPa 0,0 l/m 0 min 0 min 10 W/m 6,4 km/h (2 Bft) 97,67 %
08.05.2022 06:28 11,6 C 11,1 C 7,8 C 86 % 1026,1 hPa 0,0 l/m 0 min 0 min 11 W/m 6,4 km/h (2 Bft) 97,37 %
08.05.2022 06:30 11,6 C 11,1 C 7,8 C 86 % 1026,1 hPa 0,0 l/m 0 min 0 min 12 W/m 12,9 km/h (3 Bft) 97,87 %
08.05.2022 06:32 11,6 C 11,1 C 7,8 C 86 % 1026,1 hPa 0,0 l/m 0 min 0 min 12 W/m 9,7 km/h (2 Bft) 97,96 %
08.05.2022 06:34 11,5 C 11,1 C 7,8 C 85 % 1026,1 hPa 0,0 l/m 0 min 0 min 14 W/m 19,3 km/h (3 Bft) 97,87 %
08.05.2022 06:36 11,5 C 11,1 C 7,8 C 85 % 1026,2 hPa 0,0 l/m 0 min 0 min 14 W/m 6,4 km/h (2 Bft) 98,00 %
08.05.2022 06:38 11,5 C 11,1 C 7,8 C 85 % 1026,2 hPa 0,0 l/m 0 min 0 min 12 W/m 6,4 km/h (2 Bft) 97,87 %
08.05.2022 06:40 11,4 C 11,1 C 7,8 C 85 % 1026,2 hPa 0,0 l/m 0 min 0 min 12 W/m 12,9 km/h (3 Bft) 97,87 %
08.05.2022 06:45 11,4 C 11,1 C 7,8 C 85 % 1026,2 hPa 0,0 l/m 0 min 0 min 17 W/m 6,4 km/h (2 Bft) 100,00 %
08.05.2022 06:48 11,4 C 10,6 C 7,8 C 84 % 1026,2 hPa 0,0 l/m 0 min 0 min 21 W/m 12,9 km/h (3 Bft) 98,39 %
08.05.2022 06:50 11,4 C 10,6 C 7,8 C 84 % 1026,2 hPa 0,0 l/m 0 min 0 min 23 W/m 9,7 km/h (2 Bft) 97,87 %
08.05.2022 06:52 11,3 C 10,6 C 7,2 C 84 % 1026,3 hPa 0,0 l/m 0 min 0 min 23 W/m 9,7 km/h (2 Bft) 95,83 %
08.05.2022 06:54 11,3 C 10,6 C 7,2 C 84 % 1026,3 hPa 0,0 l/m 0 min 0 min 23 W/m 9,7 km/h (2 Bft) 97,87 %
08.05.2022 06:56 11,3 C 10,6 C 7,2 C 84 % 1026,3 hPa 0,0 l/m 0 min 0 min 23 W/m 9,7 km/h (2 Bft) 95,74 %
08.05.2022 06:58 11,3 C 10,6 C 7,2 C 84 % 1026,3 hPa 0,0 l/m 0 min 0 min 24 W/m 16,1 km/h (3 Bft) 97,83 %
08.05.2022 07:00 11,2 C 10,6 C 7,2 C 84 % 1026,4 hPa 0,0 l/m 0 min 0 min 25 W/m 9,7 km/h (2 Bft) 95,74 %
08.05.2022 07:02 11,2 C 10,6 C 7,2 C 84 % 1026,4 hPa 0,0 l/m 0 min 0 min 26 W/m 9,7 km/h (2 Bft) 93,62 %
08.05.2022 07:04 11,1 C 10,6 C 7,2 C 83 % 1026,4 hPa 0,0 l/m 0 min 0 min 26 W/m 12,9 km/h (3 Bft) 97,87 %
08.05.2022 07:06 11,1 C 10,6 C 7,2 C 83 % 1026,4 hPa 0,0 l/m 0 min 0 min 25 W/m 16,1 km/h (3 Bft) 97,87 %
08.05.2022 07:08 11,1 C 10,6 C 7,2 C 83 % 1026,4 hPa 0,0 l/m 0 min 0 min 23 W/m 12,9 km/h (3 Bft) 97,87 %
08.05.2022 07:10 11,1 C 10,6 C 7,2 C 83 % 1026,4 hPa 0,0 l/m 0 min 0 min 23 W/m 19,3 km/h (3 Bft) 97,83 %
08.05.2022 07:12 11,1 C 10,6 C 7,2 C 82 % 1026,5 hPa 0,0 l/m 0 min 0 min 23 W/m 16,1 km/h (3 Bft) 97,87 %
08.05.2022 07:14 11,1 C 10,6 C 7,2 C 82 % 1026,5 hPa 0,0 l/m 0 min 0 min 23 W/m 12,9 km/h (3 Bft) 100,00 %
08.05.2022 07:16 11,0 C 10,6 C 7,2 C 82 % 1026,6 hPa 0,0 l/m 0 min 0 min 23 W/m 16,1 km/h (3 Bft) 97,87 %
08.05.2022 07:18 11,0 C 10,6 C 7,2 C 82 % 1026,6 hPa 0,0 l/m 0 min 0 min 23 W/m 9,7 km/h (2 Bft) 97,87 %
08.05.2022 07:20 11,0 C 10,6 C 7,2 C 82 % 1026,6 hPa 0,0 l/m 0 min 0 min 25 W/m 12,9 km/h (3 Bft) 97,87 %
08.05.2022 07:22 11,1 C 10,6 C 7,2 C 82 % 1026,7 hPa 0,0 l/m 0 min 0 min 30 W/m 9,7 km/h (2 Bft) 97,83 %
08.05.2022 07:24 11,1 C 10,6 C 7,2 C 82 % 1026,7 hPa 0,0 l/m 0 min 0 min 32 W/m 12,9 km/h (3 Bft) 97,87 %
08.05.2022 07:26 11,0 C 10,6 C 7,2 C 82 % 1026,7 hPa 0,0 l/m 0 min 0 min 36 W/m 9,7 km/h (2 Bft) 97,87 %
08.05.2022 07:28 11,0 C 10,6 C 7,2 C 82 % 1026,7 hPa 0,0 l/m 0 min 0 min 40 W/m 6,4 km/h (2 Bft) 95,74 %
08.05.2022 07:30 11,0 C 10,6 C 7,2 C 82 % 1026,7 hPa 0,0 l/m 0 min 0 min 40 W/m 12,9 km/h (3 Bft) 95,74 %
08.05.2022 07:32 10,9 C 10,6 C 7,2 C 82 % 1026,7 hPa 0,0 l/m 0 min 0 min 43 W/m 9,7 km/h (2 Bft) 97,83 %
08.05.2022 07:34 10,9 C 10,6 C 7,2 C 82 % 1026,8 hPa 0,0 l/m 0 min 0 min 46 W/m 12,9 km/h (3 Bft) 97,87 %
08.05.2022 07:36 10,9 C 10,6 C 7,2 C 82 % 1026,7 hPa 0,0 l/m 0 min 0 min 49 W/m 16,1 km/h (3 Bft) 95,74 %
08.05.2022 07:38 10,9 C 10,6 C 7,2 C 83 % 1026,8 hPa 0,0 l/m 0 min 0 min 52 W/m 12,9 km/h (3 Bft) 97,87 %
08.05.2022 07:40 10,9 C 10,6 C 7,2 C 83 % 1026,8 hPa 0,0 l/m 0 min 0 min 56 W/m 16,1 km/h (3 Bft) 97,87 %
08.05.2022 07:42 10,9 C 10,6 C 7,2 C 83 % 1026,8 hPa 0,0 l/m 0 min 0 min 60 W/m 16,1 km/h (3 Bft) 97,87 %
08.05.2022 07:44 10,9 C 10,6 C 7,2 C 83 % 1026,8 hPa 0,0 l/m 0 min 0 min 62 W/m 9,7 km/h (2 Bft) 95,65 %
08.05.2022 07:46 10,9 C 10,6 C 7,2 C 83 % 1026,8 hPa 0,0 l/m 0 min 0 min 64 W/m 12,9 km/h (3 Bft) 93,62 %
08.05.2022 07:48 10,9 C 10,6 C 7,2 C 83 % 1026,8 hPa 0,0 l/m 0 min 0 min 67 W/m 16,1 km/h (3 Bft) 95,74 %
08.05.2022 07:50 11,0 C 10,6 C 7,2 C 83 % 1026,9 hPa 0,0 l/m 0 min 0 min 74 W/m 9,7 km/h (2 Bft) 95,74 %
08.05.2022 07:52 11,0 C 11,1 C 7,2 C 83 % 1026,8 hPa 0,0 l/m 0 min 0 min 78 W/m 12,9 km/h (3 Bft) 95,74 %
08.05.2022 07:54 11,0 C 11,1 C 7,2 C 83 % 1026,9 hPa 0,0 l/m 0 min 0 min 87 W/m 22,5 km/h (4 Bft) 95,74 %
08.05.2022 07:56 11,0 C 10,6 C 7,2 C 83 % 1026,9 hPa 0,0 l/m 0 min 0 min 95 W/m 12,9 km/h (3 Bft) 95,65 %
08.05.2022 07:58 11,0 C 11,1 C 7,2 C 83 % 1026,8 hPa 0,0 l/m 0 min 0 min 97 W/m 9,7 km/h (2 Bft) 95,74 %
08.05.2022 08:00 11,1 C 11,1 C 7,8 C 83 % 1026,9 hPa 0,0 l/m 0 min 0 min 97 W/m 9,7 km/h (2 Bft) 95,74 %
08.05.2022 08:02 11,1 C 11,1 C 7,8 C 83 % 1026,8 hPa 0,0 l/m 0 min 0 min 101 W/m 12,9 km/h (3 Bft) 93,75 %
08.05.2022 08:04 11,1 C 11,1 C 7,8 C 83 % 1026,9 hPa 0,0 l/m 0 min 0 min 101 W/m 6,4 km/h (2 Bft) 95,74 %
08.05.2022 08:06 11,1 C 11,1 C 7,8 C 82 % 1026,9 hPa 0,0 l/m 0 min 0 min 98 W/m 19,3 km/h (3 Bft) 97,87 %
08.05.2022 08:08 11,1 C 11,1 C 7,2 C 82 % 1026,9 hPa 0,0 l/m 0 min 0 min 101 W/m 19,3 km/h (3 Bft) 97,83 %
08.05.2022 08:10 11,1 C 11,1 C 7,2 C 82 % 1027,0 hPa 0,0 l/m 0 min 0 min 110 W/m 16,1 km/h (3 Bft) 97,87 %
08.05.2022 08:12 11,1 C 11,1 C 7,2 C 81 % 1026,9 hPa 0,0 l/m 0 min 0 min 121 W/m 9,7 km/h (2 Bft) 97,87 %
08.05.2022 08:14 11,1 C 11,1 C 7,8 C 82 % 1027,0 hPa 0,0 l/m 0 min 0 min 127 W/m 22,5 km/h (4 Bft) 93,62 %
08.05.2022 08:16 11,1 C 11,1 C 7,8 C 82 % 1027,0 hPa 0,0 l/m 0 min 0 min 132 W/m 12,9 km/h (3 Bft) 100,00 %
08.05.2022 08:18 11,2 C 11,7 C 7,8 C 82 % 1026,9 hPa 0,0 l/m 0 min 0 min 140 W/m 9,7 km/h (2 Bft) 100,00 %
08.05.2022 08:20 11,2 C 11,7 C 7,8 C 82 % 1027,0 hPa 0,0 l/m 0 min 0 min 141 W/m 16,1 km/h (3 Bft) 100,00 %
08.05.2022 08:22 11,3 C 11,7 C 7,8 C 82 % 1027,0 hPa 0,0 l/m 0 min 0 min 135 W/m 16,1 km/h (3 Bft) 97,87 %
08.05.2022 08:24 11,3 C 11,7 C 7,8 C 81 % 1027,0 hPa 0,0 l/m 0 min 0 min 134 W/m 22,5 km/h (4 Bft) 100,00 %
08.05.2022 08:26 11,3 C 11,7 C 7,8 C 81 % 1027,0 hPa 0,0 l/m 0 min 0 min 141 W/m 12,9 km/h (3 Bft) 100,00 %
08.05.2022 08:28 11,4 C 11,7 C 7,8 C 81 % 1027,1 hPa 0,0 l/m 0 min 0 min 157 W/m 6,4 km/h (2 Bft) 100,00 %
08.05.2022 08:30 11,4 C 11,7 C 7,8 C 81 % 1027,1 hPa 0,0 l/m 2 min 0 min 194 W/m 9,7 km/h (2 Bft) 100,00 %
08.05.2022 08:32 11,5 C 12,2 C 8,3 C 81 % 1027,1 hPa 0,0 l/m 0 min 0 min 180 W/m 12,9 km/h (3 Bft) 100,00 %
08.05.2022 08:34 11,6 C 12,2 C 8,3 C 81 % 1027,1 hPa 0,0 l/m 0 min 0 min 168 W/m 16,1 km/h (3 Bft) 100,00 %
08.05.2022 08:36 11,6 C 12,2 C 8,3 C 80 % 1027,2 hPa 0,0 l/m 0 min 0 min 158 W/m 12,9 km/h (3 Bft) 100,00 %
08.05.2022 08:38 11,6 C 12,2 C 8,3 C 80 % 1027,2 hPa 0,0 l/m 0 min 0 min 158 W/m 9,7 km/h (2 Bft) 100,00 %
08.05.2022 08:40 11,7 C 12,2 C 8,3 C 80 % 1027,2 hPa 0,0 l/m 0 min 0 min 168 W/m 9,7 km/h (2 Bft) 100,00 %
08.05.2022 08:42 11,7 C 12,2 C 8,3 C 80 % 1027,2 hPa 0,0 l/m 0 min 0 min 170 W/m 6,4 km/h (2 Bft) 100,00 %
08.05.2022 08:44 11,8 C 12,2 C 8,3 C 79 % 1027,2 hPa 0,0 l/m 0 min 0 min 167 W/m 9,7 km/h (2 Bft) 100,00 %
08.05.2022 08:46 11,8 C 12,2 C 8,3 C 79 % 1027,2 hPa 0,0 l/m 0 min 0 min 166 W/m 9,7 km/h (2 Bft) 100,00 %
08.05.2022 08:48 11,8 C 12,2 C 8,3 C 79 % 1027,3 hPa 0,0 l/m 0 min 0 min 168 W/m 16,1 km/h (3 Bft) 100,00 %
08.05.2022 08:50 11,8 C 12,2 C 8,3 C 79 % 1027,3 hPa 0,0 l/m 0 min 0 min 170 W/m 12,9 km/h (3 Bft) 100,00 %
08.05.2022 08:52 11,9 C 12,2 C 8,3 C 78 % 1027,3 hPa 0,0 l/m 0 min 0 min 172 W/m 19,3 km/h (3 Bft) 97,87 %
08.05.2022 08:54 11,9 C 12,2 C 8,3 C 79 % 1027,3 hPa 0,0 l/m 0 min 0 min 172 W/m 12,9 km/h (3 Bft) 95,74 %
08.05.2022 08:56 11,9 C 12,2 C 8,3 C 79 % 1027,3 hPa 0,0 l/m 0 min 0 min 169 W/m 12,9 km/h (3 Bft) 100,00 %
08.05.2022 08:58 11,9 C 12,2 C 8,3 C 79 % 1027,2 hPa 0,0 l/m 0 min 0 min 164 W/m 12,9 km/h (3 Bft) 100,00 %
08.05.2022 09:00 11,9 C 12,2 C 8,3 C 79 % 1027,3 hPa 0,0 l/m 0 min 0 min 162 W/m 12,9 km/h (3 Bft) 100,00 %
08.05.2022 09:02 11,9 C 12,2 C 8,3 C 79 % 1027,3 hPa 0,0 l/m 0 min 0 min 169 W/m 16,1 km/h (3 Bft) 97,87 %
08.05.2022 09:04 12,0 C 12,2 C 8,3 C 79 % 1027,3 hPa 0,0 l/m 0 min 0 min 188 W/m 6,4 km/h (2 Bft) 100,00 %
08.05.2022 09:06 12,1 C 12,8 C 8,9 C 79 % 1027,3 hPa 0,0 l/m 0 min 0 min 209 W/m 9,7 km/h (2 Bft) 100,00 %
08.05.2022 09:08 12,1 C 12,8 C 8,9 C 79 % 1027,3 hPa 0,0 l/m 0 min 0 min 213 W/m 25,7 km/h (4 Bft) 100,00 %
08.05.2022 09:10 12,1 C 12,8 C 8,9 C 78 % 1027,4 hPa 0,0 l/m 0 min 0 min 209 W/m 16,1 km/h (3 Bft) 97,87 %
08.05.2022 09:12 12,1 C 12,8 C 8,9 C 78 % 1027,4 hPa 0,0 l/m 0 min 0 min 208 W/m 12,9 km/h (3 Bft) 97,87 %
08.05.2022 09:14 12,2 C 12,8 C 8,9 C 78 % 1027,4 hPa 0,0 l/m 0 min 0 min 215 W/m 12,9 km/h (3 Bft) 97,87 %
08.05.2022 09:16 12,2 C 12,2 C 8,9 C 77 % 1027,4 hPa 0,0 l/m 0 min 0 min 217 W/m 16,1 km/h (3 Bft) 97,87 %
08.05.2022 09:18 12,2 C 12,8 C 8,9 C 78 % 1027,4 hPa 0,0 l/m 0 min 0 min 207 W/m 9,7 km/h (2 Bft) 97,83 %
08.05.2022 09:20 12,3 C 12,8 C 8,9 C 78 % 1027,4 hPa 0,0 l/m 0 min 0 min 196 W/m 16,1 km/h (3 Bft) 97,87 %
08.05.2022 09:22 12,3 C 12,8 C 8,9 C 78 % 1027,5 hPa 0,0 l/m 0 min 0 min 190 W/m 6,4 km/h (2 Bft) 97,87 %
08.05.2022 09:24 12,3 C 12,8 C 8,9 C 78 % 1027,5 hPa 0,0 l/m 0 min 0 min 191 W/m 16,1 km/h (3 Bft) 97,87 %
08.05.2022 09:26 12,3 C 12,8 C 8,9 C 78 % 1027,5 hPa 0,0 l/m 0 min 0 min 196 W/m 12,9 km/h (3 Bft) 97,87 %
08.05.2022 09:28 12,3 C 12,8 C 8,9 C 77 % 1027,6 hPa 0,0 l/m 0 min 0 min 201 W/m 12,9 km/h (3 Bft) 97,87 %
08.05.2022 09:30 12,3 C 12,8 C 8,9 C 77 % 1027,5 hPa 0,0 l/m 0 min 0 min 216 W/m 12,9 km/h (3 Bft) 95,65 %
08.05.2022 09:32 12,3 C 13,3 C 8,9 C 77 % 1027,5 hPa 0,0 l/m 2 min 0 min 259 W/m 9,7 km/h (2 Bft) 97,87 %
08.05.2022 09:34 12,4 C 13,3 C 9,4 C 77 % 1027,5 hPa 0,0 l/m 0 min 0 min 258 W/m 6,4 km/h (2 Bft) 97,87 %
08.05.2022 09:36 12,4 C 13,3 C 9,4 C 77 % 1027,5 hPa 0,0 l/m 0 min 0 min 258 W/m 16,1 km/h (3 Bft) 97,87 %
08.05.2022 09:38 12,5 C 13,3 C 9,4 C 75 % 1027,6 hPa 0,0 l/m 2 min 0 min 274 W/m 16,1 km/h (3 Bft) 97,87 %
08.05.2022 09:40 12,5 C 13,9 C 9,4 C 75 % 1027,6 hPa 0,0 l/m 2 min 0 min 294 W/m 19,3 km/h (3 Bft) 93,62 %
08.05.2022 09:42 12,6 C 14,4 C 10,0 C 75 % 1027,6 hPa 0,0 l/m 2 min 0 min 298 W/m 16,1 km/h (3 Bft) 97,87 %
08.05.2022 09:44 12,7 C 14,4 C 10,0 C 74 % 1027,6 hPa 0,0 l/m 2 min 0 min 394 W/m 16,1 km/h (3 Bft) 95,65 %
08.05.2022 09:46 12,8 C 15,6 C 10,6 C 74 % 1027,6 hPa 0,0 l/m 2 min 0 min 500 W/m 25,7 km/h (4 Bft) 95,74 %
08.05.2022 09:48 12,9 C 15,6 C 10,0 C 73 % 1027,6 hPa 0,0 l/m 2 min 0 min 375 W/m 16,1 km/h (3 Bft) 95,74 %
08.05.2022 09:50 13,0 C 15,0 C 10,0 C 73 % 1027,6 hPa 0,0 l/m 2 min 0 min 312 W/m 6,4 km/h (2 Bft) 95,74 %
08.05.2022 09:52 13,1 C 15,0 C 10,0 C 73 % 1027,7 hPa 0,0 l/m 2 min 0 min 320 W/m 6,4 km/h (2 Bft) 95,74 %
08.05.2022 09:54 13,2 C 15,6 C 10,6 C 73 % 1027,7 hPa 0,0 l/m 2 min 0 min 406 W/m 19,3 km/h (3 Bft) 95,74 %
08.05.2022 09:56 13,3 C 16,1 C 10,6 C 74 % 1027,7 hPa 0,0 l/m 2 min 0 min 600 W/m 19,3 km/h (3 Bft) 95,65 %
08.05.2022 09:58 13,4 C 16,1 C 10,6 C 73 % 1027,7 hPa 0,0 l/m 2 min 0 min 371 W/m 16,1 km/h (3 Bft) 95,74 %
08.05.2022 10:00 13,5 C 16,1 C 10,6 C 72 % 1027,7 hPa 0,0 l/m 2 min 0 min 367 W/m 9,7 km/h (2 Bft) 95,74 %
08.05.2022 10:02 13,6 C 16,1 C 10,6 C 71 % 1027,7 hPa 0,0 l/m 2 min 0 min 369 W/m 16,1 km/h (3 Bft) 95,83 %
08.05.2022 10:04 13,6 C 16,1 C 10,6 C 71 % 1027,8 hPa 0,0 l/m 2 min 0 min 341 W/m 19,3 km/h (3 Bft) 93,62 %
08.05.2022 10:06 13,6 C 15,6 C 10,6 C 71 % 1027,8 hPa 0,0 l/m 2 min 0 min 367 W/m 12,9 km/h (3 Bft) 93,48 %
08.05.2022 10:08 13,7 C 16,1 C 10,6 C 72 % 1027,8 hPa 0,0 l/m 2 min 0 min 380 W/m 12,9 km/h (3 Bft) 95,74 %
08.05.2022 10:10 13,8 C 16,1 C 10,6 C 72 % 1027,7 hPa 0,0 l/m 2 min 0 min 380 W/m 25,7 km/h (4 Bft) 95,74 %
08.05.2022 10:12 13,9 C 16,7 C 10,6 C 72 % 1027,8 hPa 0,0 l/m 2 min 0 min 407 W/m 16,1 km/h (3 Bft) 93,62 %
08.05.2022 10:14 14,0 C 17,2 C 10,6 C 72 % 1027,8 hPa 0,0 l/m 2 min 0 min 376 W/m 16,1 km/h (3 Bft) 95,74 %
08.05.2022 10:16 14,0 C 16,7 C 10,6 C 72 % 1027,8 hPa 0,0 l/m 2 min 0 min 472 W/m 19,3 km/h (3 Bft) 95,74 %
08.05.2022 10:18 14,1 C 17,2 C 11,1 C 72 % 1027,8 hPa 0,0 l/m 2 min 0 min 789 W/m 35,4 km/h (5 Bft) 97,83 %
08.05.2022 10:20 14,2 C 17,8 C 11,1 C 71 % 1027,9 hPa 0,0 l/m 2 min 0 min 695 W/m 12,9 km/h (3 Bft) 95,74 %
08.05.2022 10:22 14,3 C 17,8 C 11,1 C 71 % 1027,9 hPa 0,0 l/m 2 min 0 min 542 W/m 19,3 km/h (3 Bft) 97,87 %
08.05.2022 10:24 14,3 C 17,8 C 11,7 C 71 % 1027,9 hPa 0,0 l/m 2 min 0 min 522 W/m 12,9 km/h (3 Bft) 97,87 %
08.05.2022 10:26 14,3 C 17,2 C 11,7 C 71 % 1027,9 hPa 0,0 l/m 2 min 0 min 456 W/m 16,1 km/h (3 Bft) 97,87 %
08.05.2022 10:28 14,3 C 16,7 C 11,1 C 70 % 1028,0 hPa 0,0 l/m 2 min 0 min 434 W/m 19,3 km/h (3 Bft) 97,87 %
08.05.2022 10:30 14,3 C 16,7 C 11,1 C 70 % 1028,0 hPa 0,0 l/m 2 min 0 min 399 W/m 22,5 km/h (4 Bft) 97,83 %
08.05.2022 10:32 14,3 C 16,7 C 11,1 C 70 % 1028,0 hPa 0,0 l/m 2 min 0 min 399 W/m 22,5 km/h (4 Bft) 97,87 %
08.05.2022 10:34 14,3 C 16,7 C 11,7 C 70 % 1027,9 hPa 0,0 l/m 2 min 0 min 562 W/m 12,9 km/h (3 Bft) 97,87 %
08.05.2022 10:36 14,3 C 16,1 C 11,1 C 71 % 1027,9 hPa 0,0 l/m 2 min 0 min 521 W/m 22,5 km/h (4 Bft) 97,87 %
08.05.2022 10:38 14,3 C 16,1 C 11,7 C 71 % 1027,9 hPa 0,0 l/m 2 min 0 min 501 W/m 12,9 km/h (3 Bft) 95,74 %
08.05.2022 10:40 14,3 C 16,7 C 11,7 C 71 % 1027,9 hPa 0,0 l/m 2 min 0 min 532 W/m 9,7 km/h (2 Bft) 97,87 %
08.05.2022 10:42 14,4 C 16,7 C 11,7 C 71 % 1027,9 hPa 0,0 l/m 2 min 0 min 389 W/m 12,9 km/h (3 Bft) 97,83 %
08.05.2022 10:44 14,4 C 16,7 C 12,2 C 71 % 1027,9 hPa 0,0 l/m 2 min 0 min 390 W/m 12,9 km/h (3 Bft) 97,87 %
08.05.2022 10:46 14,5 C 16,7 C 12,2 C 70 % 1028,0 hPa 0,0 l/m 2 min 0 min 821 W/m 35,4 km/h (5 Bft) 97,87 %
08.05.2022 10:48 14,6 C 17,2 C 12,8 C 70 % 1027,9 hPa 0,0 l/m 2 min 0 min 800 W/m 16,1 km/h (3 Bft) 97,87 %
08.05.2022 10:50 14,7 C 16,7 C 12,8 C 70 % 1027,9 hPa 0,0 l/m 2 min 0 min 703 W/m 16,1 km/h (3 Bft) 100,00 %
08.05.2022 10:52 14,8 C 16,7 C 12,8 C 69 % 1027,9 hPa 0,0 l/m 2 min 0 min 642 W/m 16,1 km/h (3 Bft) 97,87 %
08.05.2022 10:54 14,8 C 16,7 C 12,2 C 69 % 1028,0 hPa 0,0 l/m 2 min 0 min 487 W/m 9,7 km/h (2 Bft) 100,00 %
08.05.2022 10:56 14,8 C 16,7 C 12,2 C 70 % 1028,0 hPa 0,0 l/m 2 min 0 min 410 W/m 9,7 km/h (2 Bft) 97,87 %
08.05.2022 10:58 14,8 C 16,1 C 11,7 C 69 % 1028,0 hPa 0,0 l/m 2 min 0 min 385 W/m 16,1 km/h (3 Bft) 97,87 %
08.05.2022 11:00 14,8 C 16,7 C 11,7 C 69 % 1028,0 hPa 0,0 l/m 2 min 0 min 424 W/m 6,4 km/h (2 Bft) 100,00 %
08.05.2022 11:02 14,8 C 16,7 C 11,7 C 69 % 1028,0 hPa 0,0 l/m 2 min 0 min 443 W/m 16,1 km/h (3 Bft) 100,00 %
08.05.2022 11:04 14,9 C 16,7 C 11,7 C 69 % 1028,0 hPa 0,0 l/m 2 min 0 min 405 W/m 16,1 km/h (3 Bft) 97,87 %
08.05.2022 11:06 14,8 C 16,1 C 11,7 C 68 % 1028,0 hPa 0,0 l/m 2 min 0 min 464 W/m 19,3 km/h (3 Bft) 100,00 %
08.05.2022 11:08 14,8 C 16,7 C 11,7 C 69 % 1028,0 hPa 0,0 l/m 2 min 0 min 556 W/m 12,9 km/h (3 Bft) 100,00 %
08.05.2022 11:10 14,9 C 16,7 C 12,2 C 69 % 1028,0 hPa 0,0 l/m 2 min 0 min 564 W/m 19,3 km/h (3 Bft) 100,00 %
08.05.2022 11:12 14,9 C 16,7 C 12,2 C 69 % 1028,0 hPa 0,0 l/m 2 min 0 min 477 W/m 16,1 km/h (3 Bft) 100,00 %
08.05.2022 11:14 14,9 C 16,7 C 11,7 C 68 % 1028,1 hPa 0,0 l/m 2 min 0 min 416 W/m 16,1 km/h (3 Bft) 95,74 %
08.05.2022 11:16 14,9 C 16,1 C 11,7 C 68 % 1028,0 hPa 0,0 l/m 2 min 0 min 408 W/m 16,1 km/h (3 Bft) 100,00 %
08.05.2022 11:18 14,9 C 16,1 C 11,7 C 69 % 1028,0 hPa 0,0 l/m 2 min 0 min 455 W/m 16,1 km/h (3 Bft) 100,00 %
08.05.2022 11:20 14,9 C 16,1 C 11,7 C 69 % 1028,0 hPa 0,0 l/m 2 min 0 min 458 W/m 16,1 km/h (3 Bft) 100,00 %
08.05.2022 11:22 14,9 C 16,7 C 11,7 C 70 % 1028,0 hPa 0,0 l/m 2 min 0 min 385 W/m 6,4 km/h (2 Bft) 100,00 %
08.05.2022 11:24 15,0 C 16,7 C 12,2 C 70 % 1028,0 hPa 0,0 l/m 0 min 0 min 352 W/m 12,9 km/h (3 Bft) 100,00 %
08.05.2022 11:26 14,9 C 16,1 C 11,7 C 69 % 1028,0 hPa 0,0 l/m 0 min 0 min 341 W/m 19,3 km/h (3 Bft) 100,00 %
08.05.2022 11:28 14,9 C 16,1 C 11,7 C 68 % 1028,0 hPa 0,0 l/m 0 min 0 min 338 W/m 12,9 km/h (3 Bft) 100,00 %
08.05.2022 11:30 14,9 C 16,1 C 11,7 C 68 % 1028,0 hPa 0,0 l/m 0 min 0 min 322 W/m 16,1 km/h (3 Bft) 97,83 %
08.05.2022 11:32 14,8 C 16,1 C 11,7 C 68 % 1028,0 hPa 0,0 l/m 0 min 0 min 319 W/m 12,9 km/h (3 Bft) 97,87 %
08.05.2022 11:34 14,8 C 16,1 C 11,7 C 68 % 1028,0 hPa 0,0 l/m 0 min 0 min 324 W/m 16,1 km/h (3 Bft) 100,00 %
08.05.2022 11:36 14,9 C 16,1 C 11,7 C 67 % 1028,0 hPa 0,0 l/m 0 min 0 min 327 W/m 12,9 km/h (3 Bft) 100,00 %
08.05.2022 11:38 14,9 C 16,1 C 11,7 C 67 % 1028,0 hPa 0,0 l/m 0 min 0 min 324 W/m 12,9 km/h (3 Bft) 100,00 %
08.05.2022 11:40 14,9 C 16,1 C 11,7 C 67 % 1028,0 hPa 0,0 l/m 0 min 0 min 319 W/m 12,9 km/h (3 Bft) 100,00 %
08.05.2022 11:42 14,9 C 16,1 C 11,7 C 67 % 1028,0 hPa 0,0 l/m 0 min 0 min 319 W/m 9,7 km/h (2 Bft) 97,83 %
08.05.2022 11:44 14,9 C 16,1 C 11,7 C 67 % 1027,9 hPa 0,0 l/m 0 min 0 min 325 W/m 19,3 km/h (3 Bft) 100,00 %
08.05.2022 11:46 14,9 C 16,1 C 11,7 C 67 % 1028,0 hPa 0,0 l/m 0 min 0 min 341 W/m 6,4 km/h (2 Bft) 100,00 %
08.05.2022 11:48 14,9 C 16,1 C 11,7 C 67 % 1027,9 hPa 0,0 l/m 0 min 0 min 354 W/m 9,7 km/h (2 Bft) 97,87 %
08.05.2022 11:50 14,8 C 15,6 C 12,2 C 67 % 1028,0 hPa 0,0 l/m 0 min 0 min 359 W/m 16,1 km/h (3 Bft) 97,87 %
08.05.2022 11:52 14,9 C 16,1 C 11,7 C 67 % 1027,9 hPa 0,0 l/m 2 min 0 min 398 W/m 9,7 km/h (2 Bft) 97,87 %
08.05.2022 11:54 14,9 C 16,7 C 12,2 C 68 % 1027,9 hPa 0,0 l/m 2 min 0 min 490 W/m 12,9 km/h (3 Bft) 95,65 %
08.05.2022 11:56 15,0 C 16,7 C 12,2 C 67 % 1027,9 hPa 0,0 l/m 2 min 0 min 476 W/m 12,9 km/h (3 Bft) 97,87 %
08.05.2022 11:58 15,1 C 17,8 C 12,8 C 67 % 1027,9 hPa 0,0 l/m 2 min 0 min 609 W/m 9,7 km/h (2 Bft) 97,87 %
08.05.2022 12:00 15,3 C 18,9 C 13,3 C 66 % 1027,9 hPa 0,0 l/m 2 min 0 min 859 W/m 12,9 km/h (3 Bft) 97,87 %
08.05.2022 12:02 15,6 C 18,9 C 13,9 C 66 % 1027,9 hPa 0,0 l/m 2 min 0 min 969 W/m 16,1 km/h (3 Bft) 97,87 %
08.05.2022 12:04 15,9 C 20,6 C 14,4 C 66 % 1027,9 hPa 0,0 l/m 2 min 0 min 826 W/m 9,7 km/h (2 Bft) 97,87 %
08.05.2022 12:08 16,4 C 21,1 C 16,1 C 65 % 1027,9 hPa 0,0 l/m 4 min 0 min 1024 W/m 16,1 km/h (3 Bft) 97,59 %
08.05.2022 12:10 16,7 C 21,1 C 16,1 C 64 % 1027,9 hPa 0,0 l/m 2 min 0 min 920 W/m 9,7 km/h (2 Bft) 100,00 %
08.05.2022 12:12 16,9 C 20,6 C 16,7 C 63 % 1027,9 hPa 0,0 l/m 2 min 0 min 505 W/m 6,4 km/h (2 Bft) 97,83 %
08.05.2022 12:14 17,1 C 21,1 C 17,8 C 63 % 1027,9 hPa 0,0 l/m 2 min 0 min 800 W/m 16,1 km/h (3 Bft) 97,87 %
08.05.2022 12:16 17,1 C 21,7 C 17,8 C 61 % 1027,9 hPa 0,0 l/m 2 min 0 min 1048 W/m 9,7 km/h (2 Bft) 97,87 %
08.05.2022 12:18 17,1 C 21,1 C 18,3 C 62 % 1027,9 hPa 0,0 l/m 2 min 0 min 967 W/m 12,9 km/h (3 Bft) 97,87 %
08.05.2022 12:20 17,2 C 20,6 C 18,3 C 62 % 1027,9 hPa 0,0 l/m 2 min 0 min 732 W/m 16,1 km/h (3 Bft) 97,87 %
08.05.2022 12:22 17,2 C 20,0 C 18,9 C 61 % 1027,8 hPa 0,0 l/m 2 min 0 min 741 W/m 16,1 km/h (3 Bft) 100,00 %
08.05.2022 12:24 17,3 C 20,6 C 18,9 C 61 % 1027,8 hPa 0,0 l/m 2 min 0 min 897 W/m 16,1 km/h (3 Bft) 100,00 %
08.05.2022 12:26 17,4 C 21,1 C 19,4 C 61 % 1027,9 hPa 0,0 l/m 2 min 0 min 886 W/m 16,1 km/h (3 Bft) 100,00 %
08.05.2022 12:28 17,4 C 21,7 C 19,4 C 60 % 1027,8 hPa 0,0 l/m 2 min 0 min 879 W/m 16,1 km/h (3 Bft) 97,87 %
08.05.2022 12:30 17,5 C 20,6 C 20,0 C 59 % 1027,9 hPa 0,0 l/m 2 min 0 min 879 W/m 16,1 km/h (3 Bft) 100,00 %
08.05.2022 12:32 17,5 C 21,1 C 20,0 C 60 % 1027,8 hPa 0,0 l/m 2 min 0 min 874 W/m 12,9 km/h (3 Bft) 100,00 %
08.05.2022 12:34 17,5 C 21,1 C 20,0 C 59 % 1027,8 hPa 0,0 l/m 2 min 0 min 873 W/m 19,3 km/h (3 Bft) 100,00 %
08.05.2022 12:36 17,4 C 21,7 C 19,4 C 59 % 1027,8 hPa 0,0 l/m 2 min 0 min 865 W/m 12,9 km/h (3 Bft) 100,00 %
08.05.2022 12:38 17,5 C 22,2 C 19,4 C 59 % 1027,8 hPa 0,0 l/m 2 min 0 min 861 W/m 9,7 km/h (2 Bft) 100,00 %
08.05.2022 12:40 17,6 C 22,2 C 20,0 C 59 % 1027,8 hPa 0,0 l/m 2 min 0 min 868 W/m 9,7 km/h (2 Bft) 100,00 %
08.05.2022 12:42 17,8 C 22,2 C 20,6 C 59 % 1027,7 hPa 0,0 l/m 2 min 0 min 871 W/m 9,7 km/h (2 Bft) 97,87 %
08.05.2022 12:44 17,9 C 21,1 C 20,6 C 58 % 1027,8 hPa 0,0 l/m 2 min 0 min 874 W/m 16,1 km/h (3 Bft) 93,62 %
08.05.2022 12:46 17,9 C 21,1 C 21,1 C 57 % 1027,8 hPa 0,0 l/m 2 min 0 min 871 W/m 12,9 km/h (3 Bft) 97,83 %
08.05.2022 12:48 17,9 C 21,1 C 20,6 C 58 % 1027,7 hPa 0,0 l/m 2 min 0 min 868 W/m 12,9 km/h (3 Bft) 97,87 %
08.05.2022 12:50 17,9 C 21,1 C 20,6 C 58 % 1027,7 hPa 0,0 l/m 2 min 0 min 870 W/m 9,7 km/h (2 Bft) 97,87 %
08.05.2022 12:52 18,1 C 22,2 C 20,0 C 58 % 1027,7 hPa 0,0 l/m 2 min 0 min 875 W/m 9,7 km/h (2 Bft) 97,87 %
08.05.2022 12:54 18,2 C 22,2 C 20,6 C 57 % 1027,7 hPa 0,0 l/m 2 min 0 min 871 W/m 12,9 km/h (3 Bft) 95,74 %
08.05.2022 12:56 18,3 C 21,7 C 18,9 C 56 % 1027,7 hPa 0,0 l/m 2 min 0 min 870 W/m 16,1 km/h (3 Bft) 97,87 %
08.05.2022 12:58 18,3 C 21,7 C 17,8 C 56 % 1027,7 hPa 0,0 l/m 2 min 0 min 872 W/m 16,1 km/h (3 Bft) 97,83 %
08.05.2022 13:00 18,3 C 21,7 C 16,7 C 56 % 1027,7 hPa 0,0 l/m 2 min 0 min 867 W/m 12,9 km/h (3 Bft) 97,87 %
08.05.2022 13:02 18,4 C 21,1 C 16,1 C 56 % 1027,7 hPa 0,0 l/m 2 min 0 min 874 W/m 19,3 km/h (3 Bft) 95,74 %
08.05.2022 13:04 18,4 C 21,7 C 15,6 C 55 % 1027,7 hPa 0,0 l/m 2 min 0 min 881 W/m 19,3 km/h (3 Bft) 95,74 %
08.05.2022 13:06 18,5 C 21,7 C 15,0 C 55 % 1027,6 hPa 0,0 l/m 2 min 0 min 880 W/m 16,1 km/h (3 Bft) 96,61 %
08.05.2022 13:08 18,6 C 21,1 C 14,4 C 54 % 1027,6 hPa 0,0 l/m 2 min 0 min 881 W/m 22,5 km/h (4 Bft) 97,14 %
08.05.2022 13:10 18,6 C 21,1 C 14,4 C 54 % 1027,7 hPa 0,0 l/m 2 min 0 min 884 W/m 12,9 km/h (3 Bft) 97,83 %
08.05.2022 13:12 18,6 C 21,7 C 14,4 C 54 % 1027,6 hPa 0,0 l/m 2 min 0 min 886 W/m 16,1 km/h (3 Bft) 95,74 %
08.05.2022 13:14 18,7 C 21,7 C 14,4 C 54 % 1027,6 hPa 0,0 l/m 2 min 0 min 886 W/m 12,9 km/h (3 Bft) 97,87 %
08.05.2022 13:16 18,8 C 22,2 C 14,4 C 54 % 1027,6 hPa 0,0 l/m 2 min 0 min 885 W/m 12,9 km/h (3 Bft) 97,87 %
08.05.2022 13:18 18,9 C 22,2 C 14,4 C 52 % 1027,5 hPa 0,0 l/m 2 min 0 min 885 W/m 25,7 km/h (4 Bft) 95,74 %
08.05.2022 13:20 18,9 C 21,7 C 14,4 C 52 % 1027,5 hPa 0,0 l/m 2 min 0 min 889 W/m 19,3 km/h (3 Bft) 95,74 %
08.05.2022 13:22 18,9 C 22,2 C 14,4 C 53 % 1027,6 hPa 0,0 l/m 2 min 0 min 889 W/m 16,1 km/h (3 Bft) 95,65 %
08.05.2022 13:24 18,9 C 22,2 C 14,4 C 52 % 1027,5 hPa 0,0 l/m 2 min 0 min 889 W/m 12,9 km/h (3 Bft) 95,74 %
08.05.2022 13:26 18,9 C 22,8 C 15,6 C 53 % 1027,5 hPa 0,0 l/m 2 min 0 min 888 W/m 12,9 km/h (3 Bft) 95,74 %
08.05.2022 13:28 19,0 C 22,2 C 16,7 C 53 % 1027,5 hPa 0,0 l/m 2 min 0 min 892 W/m 16,1 km/h (3 Bft) 95,74 %
08.05.2022 13:30 19,1 C 22,2 C 18,3 C 54 % 1027,5 hPa 0,0 l/m 2 min 0 min 893 W/m 19,3 km/h (3 Bft) 97,87 %
08.05.2022 13:32 19,1 C 21,7 C 20,0 C 52 % 1027,5 hPa 0,0 l/m 2 min 0 min 893 W/m 19,3 km/h (3 Bft) 97,87 %
08.05.2022 13:34 19,1 C 21,7 C 20,6 C 53 % 1027,5 hPa 0,0 l/m 2 min 0 min 887 W/m 19,3 km/h (3 Bft) 95,65 %
08.05.2022 13:36 19,1 C 22,2 C 20,6 C 53 % 1027,4 hPa 0,0 l/m 2 min 0 min 891 W/m 9,7 km/h (2 Bft) 94,92 %
08.05.2022 13:38 19,2 C 22,8 C 21,1 C 53 % 1027,4 hPa 0,0 l/m 2 min 0 min 893 W/m 9,7 km/h (2 Bft) 97,14 %
08.05.2022 13:40 19,2 C 22,2 C 21,7 C 53 % 1027,4 hPa 0,0 l/m 2 min 0 min 889 W/m 16,1 km/h (3 Bft) 97,87 %
08.05.2022 13:42 19,3 C 22,8 C 21,7 C 53 % 1027,4 hPa 0,0 l/m 2 min 0 min 893 W/m 19,3 km/h (3 Bft) 95,74 %
08.05.2022 13:44 19,4 C 22,8 C 21,1 C 53 % 1027,4 hPa 0,0 l/m 2 min 0 min 892 W/m 12,9 km/h (3 Bft) 93,62 %
08.05.2022 13:46 19,5 C 23,3 C 20,0 C 52 % 1027,3 hPa 0,0 l/m 2 min 0 min 896 W/m 12,9 km/h (3 Bft) 95,65 %
08.05.2022 13:48 19,6 C 23,9 C 18,9 C 53 % 1027,3 hPa 0,0 l/m 2 min 0 min 901 W/m 12,9 km/h (3 Bft) 95,74 %
08.05.2022 13:50 19,7 C 24,4 C 17,8 C 52 % 1027,3 hPa 0,0 l/m 2 min 0 min 898 W/m 12,9 km/h (3 Bft) 95,74 %
08.05.2022 13:52 19,7 C 23,9 C 17,2 C 51 % 1027,3 hPa 0,0 l/m 2 min 0 min 896 W/m 9,7 km/h (2 Bft) 93,62 %
08.05.2022 13:54 19,8 C 23,9 C 17,2 C 52 % 1027,3 hPa 0,0 l/m 2 min 0 min 895 W/m 12,9 km/h (3 Bft) 95,74 %
08.05.2022 13:56 19,8 C 24,4 C 16,7 C 52 % 1027,3 hPa 0,0 l/m 2 min 0 min 896 W/m 6,4 km/h (2 Bft) 95,74 %
08.05.2022 13:58 19,9 C 24,4 C 16,1 C 52 % 1027,3 hPa 0,0 l/m 2 min 0 min 893 W/m 19,3 km/h (3 Bft) 95,65 %
08.05.2022 14:00 19,8 C 23,9 C 16,1 C 52 % 1027,3 hPa 0,0 l/m 2 min 0 min 889 W/m 12,9 km/h (3 Bft) 95,74 %
08.05.2022 14:02 19,8 C 23,9 C 15,6 C 53 % 1027,3 hPa 0,0 l/m 2 min 0 min 887 W/m 12,9 km/h (3 Bft) 95,74 %
08.05.2022 14:04 19,8 C 23,9 C 15,6 C 52 % 1027,3 hPa 0,0 l/m 2 min 0 min 888 W/m 9,7 km/h (2 Bft) 95,74 %
08.05.2022 14:06 19,9 C 23,3 C 15,6 C 52 % 1027,2 hPa 0,0 l/m 2 min 0 min 888 W/m 12,9 km/h (3 Bft) 94,83 %
08.05.2022 14:08 19,9 C 23,9 C 15,6 C 51 % 1027,2 hPa 0,0 l/m 2 min 0 min 886 W/m 12,9 km/h (3 Bft) 94,44 %
08.05.2022 14:10 19,9 C 23,9 C 15,6 C 51 % 1027,2 hPa 0,0 l/m 2 min 0 min 883 W/m 12,9 km/h (3 Bft) 95,74 %
08.05.2022 14:12 19,8 C 23,9 C 15,6 C 52 % 1027,2 hPa 0,0 l/m 2 min 0 min 884 W/m 16,1 km/h (3 Bft) 95,65 %
08.05.2022 14:14 19,9 C 23,9 C 15,6 C 52 % 1027,2 hPa 0,0 l/m 2 min 0 min 888 W/m 16,1 km/h (3 Bft) 95,74 %
08.05.2022 14:16 19,8 C 23,3 C 15,6 C 51 % 1027,2 hPa 0,0 l/m 2 min 0 min 885 W/m 19,3 km/h (3 Bft) 95,74 %
08.05.2022 14:18 19,8 C 24,4 C 15,6 C 52 % 1027,1 hPa 0,0 l/m 2 min 0 min 887 W/m 12,9 km/h (3 Bft) 95,74 %
08.05.2022 14:20 20,0 C 24,4 C 15,6 C 52 % 1027,1 hPa 0,0 l/m 2 min 0 min 880 W/m 12,9 km/h (3 Bft) 95,74 %
08.05.2022 14:22 20,1 C 23,9 C 15,6 C 51 % 1027,1 hPa 0,0 l/m 2 min 0 min 881 W/m 9,7 km/h (2 Bft) 97,83 %
08.05.2022 14:24 20,1 C 23,9 C 15,6 C 50 % 1027,1 hPa 0,0 l/m 2 min 0 min 878 W/m 16,1 km/h (3 Bft) 97,87 %
08.05.2022 14:26 20,2 C 23,9 C 15,6 C 50 % 1027,1 hPa 0,0 l/m 2 min 0 min 876 W/m 9,7 km/h (2 Bft) 97,87 %
08.05.2022 14:28 20,2 C 24,4 C 15,6 C 50 % 1027,0 hPa 0,0 l/m 2 min 0 min 872 W/m 9,7 km/h (2 Bft) 93,62 %
08.05.2022 14:30 20,2 C 25,6 C 15,6 C 51 % 1027,0 hPa 0,0 l/m 2 min 0 min 867 W/m 12,9 km/h (3 Bft) 97,87 %
08.05.2022 14:32 20,2 C 25,6 C 15,6 C 52 % 1027,0 hPa 0,0 l/m 2 min 0 min 876 W/m 9,7 km/h (2 Bft) 100,00 %
08.05.2022 14:34 20,3 C 25,6 C 15,6 C 52 % 1027,0 hPa 0,0 l/m 2 min 0 min 869 W/m 9,7 km/h (2 Bft) 100,00 %
08.05.2022 14:36 20,3 C 24,4 C 15,6 C 50 % 1027,0 hPa 0,0 l/m 2 min 0 min 867 W/m 16,1 km/h (3 Bft) 100,00 %
08.05.2022 14:38 20,3 C 23,9 C 15,6 C 49 % 1027,0 hPa 0,0 l/m 2 min 0 min 868 W/m 19,3 km/h (3 Bft) 97,14 %
08.05.2022 14:40 20,2 C 23,9 C 15,6 C 51 % 1027,0 hPa 0,0 l/m 2 min 0 min 866 W/m 16,1 km/h (3 Bft) 100,00 %
08.05.2022 14:42 20,3 C 24,4 C 15,6 C 52 % 1027,0 hPa 0,0 l/m 2 min 0 min 863 W/m 9,7 km/h (2 Bft) 97,87 %
08.05.2022 14:44 20,3 C 25,0 C 15,6 C 51 % 1027,0 hPa 0,0 l/m 2 min 0 min 864 W/m 9,7 km/h (2 Bft) 100,00 %
08.05.2022 14:46 20,4 C 25,0 C 15,6 C 50 % 1026,9 hPa 0,0 l/m 2 min 0 min 863 W/m 12,9 km/h (3 Bft) 97,83 %
08.05.2022 14:48 20,5 C 25,0 C 16,1 C 51 % 1026,8 hPa 0,0 l/m 2 min 0 min 860 W/m 9,7 km/h (2 Bft) 97,87 %
08.05.2022 14:50 20,5 C 25,0 C 15,6 C 50 % 1026,8 hPa 0,0 l/m 2 min 0 min 857 W/m 12,9 km/h (3 Bft) 100,00 %
08.05.2022 14:52 20,6 C 25,0 C 15,6 C 50 % 1026,8 hPa 0,0 l/m 2 min 0 min 852 W/m 9,7 km/h (2 Bft) 100,00 %
08.05.2022 14:54 20,6 C 25,0 C 16,1 C 50 % 1026,8 hPa 0,0 l/m 2 min 0 min 850 W/m 9,7 km/h (2 Bft) 100,00 %
08.05.2022 14:56 20,7 C 25,0 C 15,6 C 50 % 1026,8 hPa 0,0 l/m 2 min 0 min 844 W/m 16,1 km/h (3 Bft) 100,00 %
08.05.2022 14:58 20,7 C 25,6 C 16,1 C 51 % 1026,8 hPa 0,0 l/m 2 min 0 min 846 W/m 9,7 km/h (2 Bft) 100,00 %
08.05.2022 15:00 20,7 C 26,1 C 16,1 C 51 % 1026,8 hPa 0,0 l/m 2 min 0 min 843 W/m 12,9 km/h (3 Bft) 100,00 %
08.05.2022 15:02 20,8 C 25,6 C 16,1 C 50 % 1026,8 hPa 0,0 l/m 2 min 0 min 839 W/m 9,7 km/h (2 Bft) 100,00 %
08.05.2022 15:04 20,9 C 25,6 C 16,1 C 49 % 1026,7 hPa 0,0 l/m 2 min 0 min 840 W/m 9,7 km/h (2 Bft) 100,00 %
08.05.2022 15:06 20,9 C 25,0 C 16,1 C 49 % 1026,8 hPa 0,0 l/m 2 min 0 min 836 W/m 9,7 km/h (2 Bft) 100,00 %
08.05.2022 15:08 20,9 C 25,6 C 16,1 C 50 % 1026,8 hPa 0,0 l/m 2 min 0 min 836 W/m 12,9 km/h (3 Bft) 100,00 %
08.05.2022 15:10 20,9 C 25,0 C 16,1 C 50 % 1026,8 hPa 0,0 l/m 2 min 0 min 832 W/m 16,1 km/h (3 Bft) 100,00 %
08.05.2022 15:12 20,9 C 24,4 C 15,6 C 50 % 1026,8 hPa 0,0 l/m 2 min 0 min 828 W/m 16,1 km/h (3 Bft) 100,00 %
08.05.2022 15:14 20,9 C 25,0 C 16,1 C 51 % 1026,7 hPa 0,0 l/m 2 min 0 min 826 W/m 9,7 km/h (2 Bft) 100,00 %
08.05.2022 15:16 21,1 C 25,6 C 16,1 C 50 % 1026,7 hPa 0,0 l/m 2 min 0 min 820 W/m 12,9 km/h (3 Bft) 97,87 %
08.05.2022 15:18 21,1 C 24,4 C 15,6 C 51 % 1026,7 hPa 0,0 l/m 2 min 0 min 817 W/m 19,3 km/h (3 Bft) 97,87 %
08.05.2022 15:20 21,0 C 24,4 C 15,6 C 50 % 1026,8 hPa 0,0 l/m 2 min 0 min 815 W/m 25,7 km/h (4 Bft) 95,74 %
08.05.2022 15:22 20,8 C 23,9 C 15,6 C 49 % 1026,8 hPa 0,0 l/m 2 min 0 min 816 W/m 25,7 km/h (4 Bft) 97,83 %
08.05.2022 15:24 20,7 C 22,8 C 15,6 C 50 % 1026,7 hPa 0,0 l/m 2 min 0 min 814 W/m 22,5 km/h (4 Bft) 97,87 %
08.05.2022 15:26 20,6 C 23,3 C 15,0 C 50 % 1026,7 hPa 0,0 l/m 2 min 0 min 811 W/m 9,7 km/h (2 Bft) 97,87 %
08.05.2022 15:28 20,7 C 23,9 C 15,6 C 52 % 1026,6 hPa 0,0 l/m 2 min 0 min 807 W/m 12,9 km/h (3 Bft) 97,87 %
08.05.2022 15:30 20,7 C 25,0 C 16,1 C 51 % 1026,5 hPa 0,0 l/m 2 min 0 min 803 W/m 16,1 km/h (3 Bft) 97,87 %
08.05.2022 15:32 20,8 C 25,0 C 15,6 C 50 % 1026,5 hPa 0,0 l/m 2 min 0 min 798 W/m 16,1 km/h (3 Bft) 97,87 %
08.05.2022 15:34 20,8 C 25,6 C 16,1 C 51 % 1026,5 hPa 0,0 l/m 2 min 0 min 791 W/m 16,1 km/h (3 Bft) 97,83 %
08.05.2022 15:36 20,8 C 25,6 C 16,1 C 51 % 1026,5 hPa 0,0 l/m 2 min 0 min 794 W/m 16,1 km/h (3 Bft) 94,92 %
08.05.2022 15:38 20,8 C 25,6 C 16,1 C 51 % 1026,5 hPa 0,0 l/m 2 min 0 min 786 W/m 12,9 km/h (3 Bft) 97,14 %
08.05.2022 15:40 20,8 C 25,0 C 16,1 C 49 % 1026,5 hPa 0,0 l/m 2 min 0 min 780 W/m 16,1 km/h (3 Bft) 97,87 %
08.05.2022 15:42 20,8 C 25,6 C 16,1 C 50 % 1026,5 hPa 0,0 l/m 2 min 0 min 780 W/m 9,7 km/h (2 Bft) 97,87 %
08.05.2022 15:44 20,9 C 25,6 C 16,1 C 50 % 1026,4 hPa 0,0 l/m 2 min 0 min 777 W/m 16,1 km/h (3 Bft) 97,87 %
08.05.2022 15:46 20,9 C 26,1 C 16,7 C 51 % 1026,5 hPa 0,0 l/m 2 min 0 min 769 W/m 9,7 km/h (2 Bft) 97,83 %
08.05.2022 15:48 20,9 C 25,0 C 16,1 C 49 % 1026,4 hPa 0,0 l/m 2 min 0 min 762 W/m 19,3 km/h (3 Bft) 93,62 %
08.05.2022 15:50 20,9 C 25,6 C 16,1 C 52 % 1026,5 hPa 0,0 l/m 2 min 0 min 763 W/m 12,9 km/h (3 Bft) 93,62 %
08.05.2022 15:52 20,9 C 25,0 C 16,1 C 51 % 1026,5 hPa 0,0 l/m 2 min 0 min 761 W/m 16,1 km/h (3 Bft) 95,74 %
08.05.2022 15:54 20,8 C 25,0 C 16,1 C 51 % 1026,4 hPa 0,0 l/m 2 min 0 min 758 W/m 9,7 km/h (2 Bft) 93,62 %
08.05.2022 15:56 20,8 C 26,1 C 16,1 C 51 % 1026,4 hPa 0,0 l/m 2 min 0 min 756 W/m 6,4 km/h (2 Bft) 95,74 %
08.05.2022 15:58 20,9 C 26,7 C 16,1 C 51 % 1026,4 hPa 0,0 l/m 2 min 0 min 754 W/m 6,4 km/h (2 Bft) 97,83 %
08.05.2022 16:00 21,0 C 26,7 C 16,1 C 51 % 1026,4 hPa 0,0 l/m 2 min 0 min 757 W/m 16,1 km/h (3 Bft) 93,62 %
08.05.2022 16:02 21,1 C 26,1 C 16,1 C 51 % 1026,4 hPa 0,0 l/m 2 min 0 min 754 W/m 16,1 km/h (3 Bft) 95,74 %
08.05.2022 16:04 21,1 C 26,1 C 16,1 C 52 % 1026,4 hPa 0,0 l/m 2 min 0 min 743 W/m 12,9 km/h (3 Bft) 97,87 %
08.05.2022 16:06 21,2 C 27,2 C 16,7 C 53 % 1026,3 hPa 0,0 l/m 2 min 0 min 737 W/m 12,9 km/h (3 Bft) 97,87 %
08.05.2022 16:08 21,3 C 26,1 C 16,7 C 51 % 1026,2 hPa 0,0 l/m 2 min 0 min 730 W/m 22,5 km/h (4 Bft) 97,87 %
08.05.2022 16:10 21,3 C 25,6 C 16,1 C 51 % 1026,3 hPa 0,0 l/m 2 min 0 min 726 W/m 19,3 km/h (3 Bft) 95,65 %
08.05.2022 16:12 21,2 C 25,6 C 16,1 C 50 % 1026,3 hPa 0,0 l/m 2 min 0 min 719 W/m 9,7 km/h (2 Bft) 95,74 %
08.05.2022 16:14 21,2 C 25,6 C 16,1 C 51 % 1026,2 hPa 0,0 l/m 2 min 0 min 717 W/m 12,9 km/h (3 Bft) 97,87 %
08.05.2022 16:16 21,3 C 26,1 C 16,7 C 52 % 1026,2 hPa 0,0 l/m 2 min 0 min 711 W/m 19,3 km/h (3 Bft) 97,87 %
08.05.2022 16:18 21,3 C 26,7 C 16,7 C 52 % 1026,2 hPa 0,0 l/m 2 min 0 min 706 W/m 19,3 km/h (3 Bft) 97,87 %
08.05.2022 16:20 21,4 C 26,7 C 16,7 C 51 % 1026,2 hPa 0,0 l/m 2 min 0 min 703 W/m 16,1 km/h (3 Bft) 97,87 %
08.05.2022 16:22 21,3 C 26,7 C 16,7 C 51 % 1026,2 hPa 0,0 l/m 2 min 0 min 691 W/m 12,9 km/h (3 Bft) 100,00 %
08.05.2022 16:24 21,3 C 27,2 C 16,7 C 51 % 1026,2 hPa 0,0 l/m 2 min 0 min 699 W/m 12,9 km/h (3 Bft) 100,00 %
08.05.2022 16:26 21,2 C 26,1 C 16,7 C 51 % 1026,2 hPa 0,0 l/m 2 min 0 min 694 W/m 16,1 km/h (3 Bft) 95,74 %
08.05.2022 16:28 21,1 C 26,7 C 16,7 C 50 % 1026,1 hPa 0,0 l/m 2 min 0 min 698 W/m 9,7 km/h (2 Bft) 97,87 %
08.05.2022 16:30 21,1 C 26,7 C 16,7 C 51 % 1026,2 hPa 0,0 l/m 2 min 0 min 693 W/m 19,3 km/h (3 Bft) 100,00 %
08.05.2022 16:32 21,1 C 26,1 C 16,7 C 52 % 1026,1 hPa 0,0 l/m 2 min 0 min 687 W/m 22,5 km/h (4 Bft) 100,00 %
08.05.2022 16:34 21,1 C 26,7 C 16,7 C 52 % 1026,1 hPa 0,0 l/m 2 min 0 min 676 W/m 22,5 km/h (4 Bft) 100,00 %
08.05.2022 16:36 21,1 C 26,7 C 17,2 C 51 % 1026,0 hPa 0,0 l/m 2 min 0 min 661 W/m 12,9 km/h (3 Bft) 97,87 %
08.05.2022 16:38 21,1 C 27,2 C 17,2 C 52 % 1026,0 hPa 0,0 l/m 2 min 0 min 662 W/m 12,9 km/h (3 Bft) 100,00 %
08.05.2022 16:40 21,1 C 27,8 C 17,2 C 51 % 1026,1 hPa 0,0 l/m 2 min 0 min 659 W/m 9,7 km/h (2 Bft) 100,00 %
08.05.2022 16:42 21,1 C 27,8 C 17,2 C 52 % 1026,0 hPa 0,0 l/m 2 min 0 min 650 W/m 12,9 km/h (3 Bft) 100,00 %
08.05.2022 16:44 21,2 C 27,8 C 17,2 C 51 % 1026,0 hPa 0,0 l/m 2 min 0 min 649 W/m 12,9 km/h (3 Bft) 100,00 %
08.05.2022 16:46 21,2 C 27,8 C 17,2 C 52 % 1026,0 hPa 0,0 l/m 2 min 0 min 648 W/m 12,9 km/h (3 Bft) 97,83 %
08.05.2022 16:48 21,3 C 28,3 C 17,2 C 53 % 1026,0 hPa 0,0 l/m 2 min 0 min 637 W/m 16,1 km/h (3 Bft) 100,00 %
08.05.2022 16:50 21,2 C 26,7 C 16,7 C 51 % 1026,0 hPa 0,0 l/m 2 min 0 min 634 W/m 16,1 km/h (3 Bft) 97,87 %
08.05.2022 16:52 21,3 C 26,1 C 17,2 C 51 % 1026,0 hPa 0,0 l/m 2 min 0 min 628 W/m 19,3 km/h (3 Bft) 96,30 %
08.05.2022 16:54 21,2 C 26,7 C 17,2 C 52 % 1025,9 hPa 0,0 l/m 2 min 0 min 624 W/m 12,9 km/h (3 Bft) 97,83 %
08.05.2022 16:56 21,3 C 27,2 C 17,2 C 51 % 1025,9 hPa 0,0 l/m 2 min 0 min 617 W/m 9,7 km/h (2 Bft) 95,74 %
08.05.2022 16:58 21,4 C 26,7 C 17,2 C 51 % 1025,9 hPa 0,0 l/m 2 min 0 min 611 W/m 16,1 km/h (3 Bft) 97,87 %
08.05.2022 17:00 21,4 C 27,2 C 17,2 C 52 % 1026,0 hPa 0,0 l/m 2 min 0 min 608 W/m 12,9 km/h (3 Bft) 97,87 %
08.05.2022 17:02 21,4 C 26,7 C 17,2 C 51 % 1026,0 hPa 0,0 l/m 2 min 0 min 602 W/m 16,1 km/h (3 Bft) 97,87 %
08.05.2022 17:04 21,3 C 26,7 C 17,2 C 50 % 1025,9 hPa 0,0 l/m 2 min 0 min 601 W/m 16,1 km/h (3 Bft) 97,83 %
08.05.2022 17:06 21,3 C 27,2 C 17,8 C 50 % 1026,0 hPa 0,0 l/m 2 min 0 min 595 W/m 22,5 km/h (4 Bft) 95,74 %
08.05.2022 17:08 21,3 C 26,7 C 17,2 C 50 % 1025,9 hPa 0,0 l/m 2 min 0 min 591 W/m 12,9 km/h (3 Bft) 97,87 %
08.05.2022 17:10 21,3 C 26,7 C 17,2 C 51 % 1025,9 hPa 0,0 l/m 2 min 0 min 589 W/m 9,7 km/h (2 Bft) 97,87 %
08.05.2022 17:12 21,2 C 26,7 C 17,8 C 51 % 1025,9 hPa 0,0 l/m 2 min 0 min 581 W/m 19,3 km/h (3 Bft) 97,87 %
08.05.2022 17:14 21,2 C 26,1 C 17,8 C 51 % 1025,9 hPa 0,0 l/m 2 min 0 min 577 W/m 22,5 km/h (4 Bft) 97,87 %
08.05.2022 17:16 21,1 C 26,1 C 17,2 C 51 % 1026,0 hPa 0,0 l/m 2 min 0 min 572 W/m 16,1 km/h (3 Bft) 97,83 %
08.05.2022 17:18 21,1 C 26,1 C 17,2 C 51 % 1025,9 hPa 0,0 l/m 2 min 0 min 565 W/m 16,1 km/h (3 Bft) 97,87 %
08.05.2022 17:20 21,2 C 26,7 C 17,2 C 51 % 1025,9 hPa 0,0 l/m 2 min 0 min 563 W/m 6,4 km/h (2 Bft) 95,74 %
08.05.2022 17:22 21,3 C 27,2 C 17,8 C 51 % 1025,9 hPa 0,0 l/m 2 min 0 min 557 W/m 16,1 km/h (3 Bft) 97,87 %
08.05.2022 17:24 21,4 C 27,2 C 17,8 C 51 % 1025,9 hPa 0,0 l/m 2 min 0 min 553 W/m 12,9 km/h (3 Bft) 97,87 %
08.05.2022 17:26 21,4 C 26,7 C 17,2 C 51 % 1025,8 hPa 0,0 l/m 2 min 0 min 544 W/m 12,9 km/h (3 Bft) 97,87 %
08.05.2022 17:28 21,4 C 27,2 C 17,2 C 51 % 1025,9 hPa 0,0 l/m 2 min 0 min 540 W/m 9,7 km/h (2 Bft) 97,83 %
08.05.2022 17:30 21,4 C 26,7 C 17,2 C 51 % 1025,8 hPa 0,0 l/m 2 min 0 min 537 W/m 25,7 km/h (4 Bft) 97,87 %
08.05.2022 17:32 21,5 C 26,7 C 17,8 C 50 % 1025,8 hPa 0,0 l/m 2 min 0 min 530 W/m 16,1 km/h (3 Bft) 97,87 %
08.05.2022 17:34 21,4 C 26,7 C 17,8 C 49 % 1025,8 hPa 0,0 l/m 2 min 0 min 523 W/m 12,9 km/h (3 Bft) 97,87 %
08.05.2022 17:36 21,4 C 27,8 C 17,8 C 50 % 1025,8 hPa 0,0 l/m 2 min 0 min 516 W/m 9,7 km/h (2 Bft) 97,87 %
08.05.2022 17:38 21,3 C 27,2 C 17,8 C 50 % 1025,8 hPa 0,0 l/m 2 min 0 min 511 W/m 12,9 km/h (3 Bft) 97,87 %
08.05.2022 17:40 21,3 C 26,7 C 17,8 C 50 % 1025,8 hPa 0,0 l/m 2 min 0 min 509 W/m 16,1 km/h (3 Bft) 97,83 %
08.05.2022 17:42 21,3 C 26,1 C 17,8 C 50 % 1025,8 hPa 0,0 l/m 2 min 0 min 503 W/m 16,1 km/h (3 Bft) 97,87 %
08.05.2022 17:44 21,4 C 26,7 C 17,8 C 51 % 1025,8 hPa 0,0 l/m 2 min 0 min 495 W/m 6,4 km/h (2 Bft) 100,00 %
08.05.2022 17:46 21,4 C 26,7 C 17,8 C 50 % 1025,8 hPa 0,0 l/m 2 min 0 min 492 W/m 9,7 km/h (2 Bft) 100,00 %
08.05.2022 17:48 21,5 C 26,7 C 17,8 C 49 % 1025,8 hPa 0,0 l/m 2 min 0 min 489 W/m 6,4 km/h (2 Bft) 97,87 %
08.05.2022 17:50 21,6 C 27,2 C 17,8 C 51 % 1025,8 hPa 0,0 l/m 2 min 0 min 479 W/m 9,7 km/h (2 Bft) 95,74 %
08.05.2022 17:52 21,8 C 27,8 C 18,3 C 51 % 1025,7 hPa 0,0 l/m 2 min 0 min 472 W/m 9,7 km/h (2 Bft) 95,65 %
08.05.2022 17:54 21,9 C 27,8 C 18,3 C 51 % 1025,7 hPa 0,0 l/m 2 min 0 min 469 W/m 6,4 km/h (2 Bft) 95,74 %
08.05.2022 17:56 21,9 C 27,8 C 18,3 C 49 % 1025,7 hPa 0,0 l/m 2 min 0 min 462 W/m 12,9 km/h (3 Bft) 97,87 %
08.05.2022 17:58 21,8 C 27,8 C 18,3 C 50 % 1025,7 hPa 0,0 l/m 2 min 0 min 454 W/m 12,9 km/h (3 Bft) 95,74 %
08.05.2022 18:00 21,7 C 27,2 C 18,3 C 50 % 1025,7 hPa 0,0 l/m 2 min 0 min 444 W/m 9,7 km/h (2 Bft) 95,74 %
08.05.2022 18:02 21,7 C 26,7 C 17,8 C 50 % 1025,7 hPa 0,0 l/m 2 min 0 min 442 W/m 12,9 km/h (3 Bft) 95,74 %
08.05.2022 18:04 21,6 C 26,1 C 17,8 C 50 % 1025,6 hPa 0,0 l/m 2 min 0 min 439 W/m 29,0 km/h (5 Bft) 95,65 %
08.05.2022 18:07 21,4 C 26,1 C 17,8 C 50 % 1025,6 hPa 0,0 l/m 3 min 0 min 430 W/m 16,1 km/h (3 Bft) 95,83 %
08.05.2022 18:08 21,4 C 26,1 C 17,8 C 50 % 1025,6 hPa 0,0 l/m 1 min 0 min 423 W/m 12,9 km/h (3 Bft) 95,65 %
08.05.2022 18:10 21,3 C 26,1 C 17,2 C 50 % 1025,6 hPa 0,0 l/m 2 min 0 min 420 W/m 9,7 km/h (2 Bft) 89,36 %
08.05.2022 18:12 21,2 C 26,7 C 17,8 C 50 % 1025,6 hPa 0,0 l/m 2 min 0 min 412 W/m 6,4 km/h (2 Bft) 95,74 %
08.05.2022 18:14 21,2 C 26,7 C 17,8 C 51 % 1025,6 hPa 0,0 l/m 2 min 0 min 410 W/m 12,9 km/h (3 Bft) 95,74 %
08.05.2022 18:16 21,2 C 26,7 C 17,8 C 51 % 1025,7 hPa 0,0 l/m 2 min 0 min 404 W/m 12,9 km/h (3 Bft) 95,65 %
08.05.2022 18:18 21,3 C 26,7 C 17,8 C 51 % 1025,6 hPa 0,0 l/m 2 min 0 min 398 W/m 6,4 km/h (2 Bft) 95,74 %
08.05.2022 18:20 21,3 C 27,2 C 17,8 C 50 % 1025,7 hPa 0,0 l/m 2 min 0 min 391 W/m 12,9 km/h (3 Bft) 95,74 %
08.05.2022 18:22 21,3 C 26,7 C 17,8 C 50 % 1025,7 hPa 0,0 l/m 2 min 0 min 385 W/m 22,5 km/h (4 Bft) 95,74 %
08.05.2022 18:24 21,3 C 26,1 C 17,2 C 50 % 1025,7 hPa 0,0 l/m 2 min 0 min 380 W/m 19,3 km/h (3 Bft) 95,74 %
08.05.2022 18:26 21,2 C 26,1 C 17,8 C 50 % 1025,7 hPa 0,0 l/m 2 min 0 min 374 W/m 16,1 km/h (3 Bft) 95,74 %
08.05.2022 18:28 21,1 C 26,1 C 17,2 C 50 % 1025,7 hPa 0,0 l/m 2 min 0 min 368 W/m 19,3 km/h (3 Bft) 91,30 %
08.05.2022 18:30 21,1 C 26,1 C 17,2 C 51 % 1025,6 hPa 0,0 l/m 2 min 0 min 361 W/m 19,3 km/h (3 Bft) 97,87 %
08.05.2022 18:32 20,9 C 25,6 C 17,2 C 50 % 1025,7 hPa 0,0 l/m 2 min 0 min 355 W/m 12,9 km/h (3 Bft) 93,62 %
08.05.2022 18:34 20,9 C 26,1 C 17,2 C 52 % 1025,7 hPa 0,0 l/m 2 min 0 min 350 W/m 9,7 km/h (2 Bft) 97,87 %
08.05.2022 18:36 21,0 C 26,1 C 17,2 C 51 % 1025,6 hPa 0,0 l/m 2 min 0 min 343 W/m 16,1 km/h (3 Bft) 100,00 %
08.05.2022 18:38 21,0 C 26,1 C 16,7 C 50 % 1025,6 hPa 0,0 l/m 2 min 0 min 339 W/m 16,1 km/h (3 Bft) 100,00 %
08.05.2022 18:40 20,9 C 26,7 C 16,7 C 51 % 1025,6 hPa 0,0 l/m 2 min 0 min 334 W/m 12,9 km/h (3 Bft) 100,00 %
08.05.2022 18:42 20,9 C 27,2 C 16,1 C 51 % 1025,6 hPa 0,0 l/m 2 min 0 min 327 W/m 9,7 km/h (2 Bft) 97,87 %
08.05.2022 18:44 20,8 C 26,7 C 16,1 C 50 % 1025,6 hPa 0,0 l/m 2 min 0 min 321 W/m 12,9 km/h (3 Bft) 100,00 %
08.05.2022 18:46 20,6 C 26,1 C 15,6 C 51 % 1025,6 hPa 0,0 l/m 2 min 0 min 317 W/m 6,4 km/h (2 Bft) 100,00 %
08.05.2022 18:48 20,5 C 26,1 C 15,6 C 53 % 1025,5 hPa 0,0 l/m 2 min 0 min 312 W/m 9,7 km/h (2 Bft) 100,00 %
08.05.2022 18:50 20,4 C 25,0 C 15,6 C 52 % 1025,6 hPa 0,0 l/m 2 min 0 min 307 W/m 16,1 km/h (3 Bft) 100,00 %
08.05.2022 18:52 20,2 C 24,4 C 15,6 C 51 % 1025,6 hPa 0,0 l/m 2 min 0 min 301 W/m 9,7 km/h (2 Bft) 100,00 %
08.05.2022 18:54 20,1 C 25,0 C 15,0 C 52 % 1025,5 hPa 0,0 l/m 2 min 0 min 290 W/m 9,7 km/h (2 Bft) 100,00 %
08.05.2022 18:56 19,9 C 25,0 C 15,0 C 53 % 1025,5 hPa 0,0 l/m 2 min 0 min 282 W/m 9,7 km/h (2 Bft) 100,00 %
08.05.2022 18:58 19,8 C 23,9 C 15,0 C 53 % 1025,5 hPa 0,0 l/m 2 min 0 min 274 W/m 19,3 km/h (3 Bft) 100,00 %
08.05.2022 19:00 19,7 C 22,8 C 15,0 C 54 % 1025,5 hPa 0,0 l/m 2 min 0 min 267 W/m 9,7 km/h (2 Bft) 100,00 %
08.05.2022 19:02 19,7 C 21,1 C 15,0 C 54 % 1025,5 hPa 0,0 l/m 2 min 0 min 261 W/m 16,1 km/h (3 Bft) 100,00 %
08.05.2022 19:04 19,6 C 20,0 C 15,0 C 54 % 1025,5 hPa 0,0 l/m 2 min 0 min 254 W/m 16,1 km/h (3 Bft) 100,00 %
08.05.2022 19:06 19,5 C 19,4 C 15,0 C 54 % 1025,6 hPa 0,0 l/m 2 min 0 min 249 W/m 16,1 km/h (3 Bft) 100,00 %
08.05.2022 19:08 19,4 C 18,9 C 14,4 C 53 % 1025,5 hPa 0,0 l/m 2 min 0 min 242 W/m 9,7 km/h (2 Bft) 95,74 %
08.05.2022 19:10 19,3 C 18,9 C 14,4 C 54 % 1025,5 hPa 0,0 l/m 2 min 0 min 233 W/m 12,9 km/h (3 Bft) 100,00 %
08.05.2022 19:12 19,2 C 18,9 C 14,4 C 55 % 1025,5 hPa 0,0 l/m 2 min 0 min 225 W/m 9,7 km/h (2 Bft) 100,00 %
08.05.2022 19:14 19,1 C 18,9 C 14,4 C 55 % 1025,5 hPa 0,0 l/m 2 min 0 min 217 W/m 9,7 km/h (2 Bft) 100,00 %
08.05.2022 19:16 19,1 C 18,3 C 13,9 C 56 % 1025,5 hPa 0,0 l/m 2 min 0 min 201 W/m 19,3 km/h (3 Bft) 97,87 %
08.05.2022 19:18 18,9 C 18,3 C 14,4 C 55 % 1025,5 hPa 0,0 l/m 2 min 0 min 129 W/m 22,5 km/h (4 Bft) 100,00 %
08.05.2022 19:20 18,8 C 18,3 C 13,9 C 55 % 1025,5 hPa 0,0 l/m 0 min 0 min 64 W/m 9,7 km/h (2 Bft) 100,00 %
08.05.2022 19:22 18,8 C 18,3 C 13,9 C 56 % 1025,5 hPa 0,0 l/m 0 min 0 min 55 W/m 9,7 km/h (2 Bft) 100,00 %
08.05.2022 19:24 18,7 C 18,3 C 13,9 C 56 % 1025,5 hPa 0,0 l/m 0 min 0 min 54 W/m 16,1 km/h (3 Bft) 100,00 %
08.05.2022 19:26 18,6 C 18,3 C 13,9 C 55 % 1025,5 hPa 0,0 l/m 0 min 0 min 53 W/m 9,7 km/h (2 Bft) 100,00 %
08.05.2022 19:28 18,6 C 18,3 C 13,9 C 56 % 1025,5 hPa 0,0 l/m 0 min 0 min 52 W/m 12,9 km/h (3 Bft) 100,00 %
08.05.2022 19:30 18,5 C 18,3 C 13,9 C 56 % 1025,5 hPa 0,0 l/m 0 min 0 min 51 W/m 6,4 km/h (2 Bft) 100,00 %
08.05.2022 19:32 18,4 C 18,3 C 13,9 C 57 % 1025,5 hPa 0,0 l/m 0 min 0 min 49 W/m 9,7 km/h (2 Bft) 100,00 %
08.05.2022 19:34 18,4 C 18,3 C 13,9 C 56 % 1025,5 hPa 0,0 l/m 0 min 0 min 49 W/m 9,7 km/h (2 Bft) 100,00 %
08.05.2022 19:36 18,4 C 17,8 C 13,9 C 56 % 1025,6 hPa 0,0 l/m 0 min 0 min 50 W/m 6,4 km/h (2 Bft) 97,87 %
08.05.2022 19:38 18,4 C 17,8 C 13,9 C 56 % 1025,5 hPa 0,0 l/m 0 min 0 min 47 W/m 19,3 km/h (3 Bft) 100,00 %
08.05.2022 19:40 18,3 C 17,8 C 13,9 C 56 % 1025,5 hPa 0,0 l/m 0 min 0 min 46 W/m 9,7 km/h (2 Bft) 97,87 %
08.05.2022 19:42 18,3 C 17,8 C 13,9 C 56 % 1025,5 hPa 0,0 l/m 0 min 0 min 46 W/m 16,1 km/h (3 Bft) 100,00 %
08.05.2022 19:44 18,3 C 17,8 C 13,9 C 55 % 1025,5 hPa 0,0 l/m 0 min 0 min 44 W/m 12,9 km/h (3 Bft) 100,00 %
08.05.2022 19:46 18,3 C 17,8 C 13,9 C 55 % 1025,5 hPa 0,0 l/m 0 min 0 min 44 W/m 16,1 km/h (3 Bft) 100,00 %
08.05.2022 19:48 18,2 C 17,8 C 13,9 C 55 % 1025,5 hPa 0,0 l/m 0 min 0 min 42 W/m 9,7 km/h (2 Bft) 100,00 %
08.05.2022 19:50 18,2 C 17,8 C 13,9 C 56 % 1025,5 hPa 0,0 l/m 0 min 0 min 41 W/m 6,4 km/h (2 Bft) 97,83 %
08.05.2022 19:52 18,2 C 17,2 C 13,3 C 56 % 1025,5 hPa 0,0 l/m 0 min 0 min 40 W/m 12,9 km/h (3 Bft) 95,74 %
08.05.2022 19:54 18,1 C 17,2 C 13,3 C 55 % 1025,5 hPa 0,0 l/m 0 min 0 min 40 W/m 12,9 km/h (3 Bft) 97,87 %
08.05.2022 19:56 18,1 C 17,2 C 13,3 C 56 % 1025,6 hPa 0,0 l/m 0 min 0 min 39 W/m 6,4 km/h (2 Bft) 97,87 %
08.05.2022 19:58 18,1 C 17,2 C 13,3 C 56 % 1025,6 hPa 0,0 l/m 0 min 0 min 37 W/m 19,3 km/h (3 Bft) 97,87 %
08.05.2022 20:00 18,1 C 17,2 C 13,3 C 57 % 1025,6 hPa 0,0 l/m 0 min 0 min 36 W/m 6,4 km/h (2 Bft) 97,87 %
08.05.2022 20:02 17,9 C 17,2 C 13,3 C 56 % 1025,6 hPa 0,0 l/m 0 min 0 min 35 W/m 9,7 km/h (2 Bft) 95,65 %
08.05.2022 20:04 17,9 C 17,2 C 13,3 C 56 % 1025,5 hPa 0,0 l/m 0 min 0 min 34 W/m 12,9 km/h (3 Bft) 95,74 %
08.05.2022 20:06 17,9 C 17,2 C 13,3 C 56 % 1025,6 hPa 0,0 l/m 0 min 0 min 33 W/m 12,9 km/h (3 Bft) 97,87 %
08.05.2022 20:08 17,8 C 17,2 C 13,3 C 57 % 1025,6 hPa 0,0 l/m 0 min 0 min 32 W/m 6,4 km/h (2 Bft) 95,74 %
08.05.2022 20:10 17,8 C 17,2 C 13,3 C 56 % 1025,6 hPa 0,0 l/m 0 min 0 min 32 W/m 9,7 km/h (2 Bft) 93,62 %
08.05.2022 20:12 17,8 C 17,2 C 13,3 C 57 % 1025,7 hPa 0,0 l/m 0 min 0 min 30 W/m 6,4 km/h (2 Bft) 95,74 %
08.05.2022 20:14 17,8 C 17,2 C 13,3 C 56 % 1025,7 hPa 0,0 l/m 0 min 0 min 29 W/m 6,4 km/h (2 Bft) 95,65 %
08.05.2022 20:16 17,7 C 16,7 C 13,3 C 57 % 1025,7 hPa 0,0 l/m 0 min 0 min 28 W/m 12,9 km/h (3 Bft) 91,49 %
08.05.2022 20:18 17,7 C 16,7 C 12,8 C 56 % 1025,7 hPa 0,0 l/m 0 min 0 min 26 W/m 9,7 km/h (2 Bft) 95,74 %
08.05.2022 20:20 17,6 C 16,7 C 12,8 C 56 % 1025,7 hPa 0,0 l/m 0 min 0 min 26 W/m 9,7 km/h (2 Bft) 95,74 %
08.05.2022 20:22 17,6 C 16,7 C 12,8 C 57 % 1025,8 hPa 0,0 l/m 0 min 0 min 26 W/m 9,7 km/h (2 Bft) 91,49 %
08.05.2022 20:24 17,5 C 16,7 C 12,8 C 57 % 1025,7 hPa 0,0 l/m 0 min 0 min 25 W/m 6,4 km/h (2 Bft) 95,74 %
08.05.2022 20:26 17,5 C 16,7 C 12,8 C 57 % 1025,7 hPa 0,0 l/m 0 min 0 min 23 W/m 12,9 km/h (3 Bft) 91,30 %
08.05.2022 20:28 17,4 C 16,7 C 12,8 C 57 % 1025,8 hPa 0,0 l/m 0 min 0 min 23 W/m 6,4 km/h (2 Bft) 93,62 %
08.05.2022 20:30 17,4 C 16,7 C 12,8 C 58 % 1025,7 hPa 0,0 l/m 0 min 0 min 21 W/m 3,2 km/h (1 Bft) 93,62 %
08.05.2022 20:32 17,4 C 16,7 C 12,8 C 58 % 1025,8 hPa 0,0 l/m 0 min 0 min 21 W/m 9,7 km/h (2 Bft) 95,74 %
08.05.2022 20:34 17,3 C 16,7 C 12,8 C 57 % 1025,8 hPa 0,0 l/m 0 min 0 min 20 W/m 16,1 km/h (3 Bft) 95,74 %
08.05.2022 20:36 17,3 C 16,7 C 12,8 C 58 % 1025,8 hPa 0,0 l/m 0 min 0 min 19 W/m 9,7 km/h (2 Bft) 95,74 %
08.05.2022 20:38 17,3 C 16,7 C 12,8 C 57 % 1025,8 hPa 0,0 l/m 0 min 0 min 18 W/m 6,4 km/h (2 Bft) 97,83 %
08.05.2022 20:40 17,3 C 16,1 C 12,8 C 57 % 1025,8 hPa 0,0 l/m 0 min 0 min 17 W/m 6,4 km/h (2 Bft) 97,87 %
08.05.2022 20:42 17,2 C 16,1 C 12,8 C 58 % 1025,9 hPa 0,0 l/m 0 min 0 min 16 W/m 12,9 km/h (3 Bft) 97,87 %
08.05.2022 20:44 17,2 C 16,1 C 12,8 C 57 % 1025,8 hPa 0,0 l/m 0 min 0 min 16 W/m 3,2 km/h (1 Bft) 97,87 %
08.05.2022 20:46 17,2 C 16,1 C 12,8 C 58 % 1025,9 hPa 0,0 l/m 0 min 0 min 14 W/m 6,4 km/h (2 Bft) 93,62 %
08.05.2022 20:48 17,1 C 16,1 C 12,2 C 58 % 1025,9 hPa 0,0 l/m 0 min 0 min 13 W/m 12,9 km/h (3 Bft) 97,87 %
08.05.2022 20:50 17,1 C 16,1 C 12,2 C 58 % 1025,9 hPa 0,0 l/m 0 min 0 min 12 W/m 6,4 km/h (2 Bft) 95,65 %
08.05.2022 20:52 17,0 C 16,1 C 12,2 C 58 % 1025,9 hPa 0,0 l/m 0 min 0 min 12 W/m 3,2 km/h (1 Bft) 95,74 %
08.05.2022 20:54 16,9 C 16,1 C 12,2 C 58 % 1025,9 hPa 0,0 l/m 0 min 0 min 11 W/m 3,2 km/h (1 Bft) 97,87 %
08.05.2022 20:56 16,9 C 15,6 C 12,2 C 60 % 1026,0 hPa 0,0 l/m 0 min 0 min 10 W/m 9,7 km/h (2 Bft) 97,87 %
08.05.2022 20:58 16,8 C 15,6 C 12,2 C 59 % 1026,0 hPa 0,0 l/m 0 min 0 min 9 W/m 6,4 km/h (2 Bft) 97,87 %
08.05.2022 21:00 16,8 C 15,6 C 12,2 C 59 % 1026,0 hPa 0,0 l/m 0 min 0 min 8 W/m 6,4 km/h (2 Bft) 97,87 %
08.05.2022 21:02 16,8 C 15,6 C 12,2 C 59 % 1026,0 hPa 0,0 l/m 0 min 0 min 7 W/m 9,7 km/h (2 Bft) 95,65 %
08.05.2022 21:04 16,7 C 15,6 C 12,2 C 59 % 1026,0 hPa 0,0 l/m 0 min 0 min 6 W/m 0,0 km/h (0 Bft) 95,74 %
08.05.2022 21:06 16,7 C 15,6 C 11,7 C 60 % 1026,0 hPa 0,0 l/m 0 min 0 min 5 W/m 3,2 km/h (1 Bft) 93,62 %
08.05.2022 21:08 16,7 C 15,6 C 11,7 C 60 % 1026,0 hPa 0,0 l/m 0 min 0 min 4 W/m 3,2 km/h (1 Bft) 97,87 %
08.05.2022 21:10 16,6 C 15,6 C 11,7 C 60 % 1026,0 hPa 0,0 l/m 0 min 0 min 0 W/m 3,2 km/h (1 Bft) 97,87 %
08.05.2022 21:12 16,6 C 15,6 C 11,7 C 60 % 1026,1 hPa 0,0 l/m 0 min 0 min 0 W/m 3,2 km/h (1 Bft) 97,87 %
08.05.2022 21:14 16,5 C 15,0 C 11,7 C 60 % 1026,1 hPa 0,0 l/m 0 min 0 min 0 W/m 3,2 km/h (1 Bft) 97,83 %
08.05.2022 21:16 16,5 C 15,0 C 11,7 C 62 % 1026,1 hPa 0,0 l/m 0 min 0 min 0 W/m 3,2 km/h (1 Bft) 100,00 %
08.05.2022 21:18 16,4 C 15,0 C 11,7 C 61 % 1026,1 hPa 0,0 l/m 0 min 0 min 0 W/m 3,2 km/h (1 Bft) 100,00 %
08.05.2022 21:20 16,4 C 15,0 C 11,7 C 61 % 1026,1 hPa 0,0 l/m 0 min 0 min 0 W/m 3,2 km/h (1 Bft) 100,00 %
08.05.2022 21:22 16,4 C 15,0 C 11,1 C 61 % 1026,2 hPa 0,0 l/m 0 min 0 min 0 W/m 0,0 km/h (0 Bft) 97,87 %
08.05.2022 21:24 16,3 C 15,0 C 11,1 C 62 % 1026,2 hPa 0,0 l/m 0 min 0 min 0 W/m 0,0 km/h (0 Bft) 100,00 %
08.05.2022 21:26 16,3 C 14,4 C 11,1 C 63 % 1026,2 hPa 0,0 l/m 0 min 0 min 0 W/m 0,0 km/h (0 Bft) 97,83 %
08.05.2022 21:28 16,3 C 14,4 C 11,1 C 63 % 1026,2 hPa 0,0 l/m 0 min 0 min 0 W/m 3,2 km/h (1 Bft) 100,00 %
08.05.2022 21:30 16,3 C 14,4 C 11,1 C 64 % 1026,2 hPa 0,0 l/m 0 min 0 min 0 W/m 0,0 km/h (0 Bft) 100,00 %
08.05.2022 21:32 16,2 C 14,4 C 10,6 C 64 % 1026,2 hPa 0,0 l/m 0 min 0 min 0 W/m 0,0 km/h (0 Bft) 97,87 %
08.05.2022 21:34 16,2 C 14,4 C 10,6 C 64 % 1026,2 hPa 0,0 l/m 0 min 0 min 0 W/m 0,0 km/h (0 Bft) 100,00 %
08.05.2022 21:36 16,1 C 14,4 C 10,6 C 64 % 1026,3 hPa 0,0 l/m 0 min 0 min 0 W/m 6,4 km/h (2 Bft) 100,00 %
08.05.2022 21:38 16,1 C 14,4 C 10,6 C 63 % 1026,3 hPa 0,0 l/m 0 min 0 min 0 W/m 0,0 km/h (0 Bft) 100,00 %
08.05.2022 21:40 15,9 C 14,4 C 11,1 C 62 % 1026,3 hPa 0,0 l/m 0 min 0 min 0 W/m 6,4 km/h (2 Bft) 100,00 %
08.05.2022 21:42 15,9 C 14,4 C 10,6 C 62 % 1026,3 hPa 0,0 l/m 0 min 0 min 0 W/m 0,0 km/h (0 Bft) 100,00 %
08.05.2022 21:44 15,8 C 14,4 C 10,6 C 64 % 1026,3 hPa 0,0 l/m 0 min 0 min 0 W/m 3,2 km/h (1 Bft) 97,87 %
08.05.2022 21:46 15,8 C 14,4 C 10,6 C 64 % 1026,4 hPa 0,0 l/m 0 min 0 min 0 W/m 3,2 km/h (1 Bft) 97,87 %
08.05.2022 21:48 15,7 C 13,9 C 10,6 C 65 % 1026,4 hPa 0,0 l/m 0 min 0 min 0 W/m 3,2 km/h (1 Bft) 95,74 %
08.05.2022 21:50 15,6 C 13,9 C 10,6 C 64 % 1026,4 hPa 0,0 l/m 0 min 0 min 0 W/m 3,2 km/h (1 Bft) 100,00 %
08.05.2022 21:52 15,6 C 13,9 C 10,6 C 64 % 1026,4 hPa 0,0 l/m 0 min 0 min 0 W/m 3,2 km/h (1 Bft) 100,00 %
08.05.2022 21:54 15,5 C 13,9 C 10,6 C 64 % 1026,4 hPa 0,0 l/m 0 min 0 min 0 W/m 0,0 km/h (0 Bft) 97,87 %
08.05.2022 21:56 15,4 C 13,9 C 10,6 C 66 % 1026,5 hPa 0,0 l/m 0 min 0 min 0 W/m 3,2 km/h (1 Bft) 97,87 %
08.05.2022 21:58 15,3 C 13,9 C 10,6 C 64 % 1026,5 hPa 0,0 l/m 0 min 0 min 0 W/m 3,2 km/h (1 Bft) 95,74 %
08.05.2022 22:00 15,3 C 13,9 C 10,6 C 64 % 1026,5 hPa 0,0 l/m 0 min 0 min 0 W/m 3,2 km/h (1 Bft) 93,62 %
08.05.2022 22:02 15,2 C 13,9 C 10,6 C 64 % 1026,6 hPa 0,0 l/m 0 min 0 min 0 W/m 3,2 km/h (1 Bft) 95,65 %
08.05.2022 22:04 15,2 C 13,9 C 10,6 C 64 % 1026,6 hPa 0,0 l/m 0 min 0 min 0 W/m 3,2 km/h (1 Bft) 95,74 %
08.05.2022 22:06 15,2 C 13,9 C 10,6 C 64 % 1026,7 hPa 0,0 l/m 0 min 0 min 0 W/m 0,0 km/h (0 Bft) 95,74 %
08.05.2022 22:08 15,1 C 13,9 C 10,6 C 65 % 1026,7 hPa 0,0 l/m 0 min 0 min 0 W/m 0,0 km/h (0 Bft) 93,62 %
08.05.2022 22:10 15,1 C 13,9 C 10,6 C 65 % 1026,7 hPa 0,0 l/m 0 min 0 min 0 W/m 3,2 km/h (1 Bft) 97,87 %
08.05.2022 22:12 15,1 C 13,9 C 10,6 C 65 % 1026,6 hPa 0,0 l/m 0 min 0 min 0 W/m 3,2 km/h (1 Bft) 95,74 %
08.05.2022 22:14 15,0 C 13,9 C 10,6 C 65 % 1026,7 hPa 0,0 l/m 0 min 0 min 0 W/m 3,2 km/h (1 Bft) 95,65 %
08.05.2022 22:16 15,0 C 13,9 C 10,6 C 65 % 1026,7 hPa 0,0 l/m 0 min 0 min 0 W/m 0,0 km/h (0 Bft) 95,74 %
08.05.2022 22:18 14,9 C 13,9 C 10,0 C 65 % 1026,7 hPa 0,0 l/m 0 min 0 min 0 W/m 0,0 km/h (0 Bft) 93,62 %
08.05.2022 22:20 14,9 C 13,9 C 10,0 C 66 % 1026,7 hPa 0,0 l/m 0 min 0 min 0 W/m 0,0 km/h (0 Bft) 93,62 %
08.05.2022 22:22 14,9 C 13,3 C 10,0 C 66 % 1026,7 hPa 0,0 l/m 0 min 0 min 0 W/m 3,2 km/h (1 Bft) 95,74 %
08.05.2022 22:24 14,8 C 13,3 C 10,0 C 66 % 1026,7 hPa 0,0 l/m 0 min 0 min 0 W/m 3,2 km/h (1 Bft) 95,74 %
08.05.2022 22:26 14,8 C 13,3 C 10,0 C 67 % 1026,7 hPa 0,0 l/m 0 min 0 min 0 W/m 0,0 km/h (0 Bft) 97,83 %
08.05.2022 22:28 14,8 C 13,3 C 10,0 C 67 % 1026,8 hPa 0,0 l/m 0 min 0 min 0 W/m 0,0 km/h (0 Bft) 97,87 %
08.05.2022 22:30 14,8 C 13,3 C 10,0 C 67 % 1026,8 hPa 0,0 l/m 0 min 0 min 0 W/m 0,0 km/h (0 Bft) 97,87 %
08.05.2022 22:32 14,8 C 13,3 C 10,0 C 68 % 1026,8 hPa 0,0 l/m 0 min 0 min 0 W/m 0,0 km/h (0 Bft) 100,00 %
08.05.2022 22:34 14,7 C 13,3 C 10,0 C 68 % 1026,8 hPa 0,0 l/m 0 min 0 min 0 W/m 0,0 km/h (0 Bft) 100,00 %
08.05.2022 22:36 14,7 C 13,3 C 10,0 C 68 % 1026,8 hPa 0,0 l/m 0 min 0 min 0 W/m 0,0 km/h (0 Bft) 97,87 %
08.05.2022 22:38 14,7 C 13,3 C 9,4 C 68 % 1026,8 hPa 0,0 l/m 0 min 0 min 0 W/m 0,0 km/h (0 Bft) 100,00 %
08.05.2022 22:40 14,6 C 12,8 C 9,4 C 69 % 1026,8 hPa 0,0 l/m 0 min 0 min 0 W/m 0,0 km/h (0 Bft) 100,00 %
08.05.2022 22:42 14,6 C 12,8 C 9,4 C 69 % 1026,8 hPa 0,0 l/m 0 min 0 min 0 W/m 0,0 km/h (0 Bft) 100,00 %
08.05.2022 22:44 14,6 C 12,8 C 9,4 C 69 % 1026,8 hPa 0,0 l/m 0 min 0 min 0 W/m 0,0 km/h (0 Bft) 97,87 %
08.05.2022 22:46 14,6 C 12,8 C 9,4 C 69 % 1026,8 hPa 0,0 l/m 0 min 0 min 0 W/m 0,0 km/h (0 Bft) 100,00 %
08.05.2022 22:48 14,5 C 12,8 C 9,4 C 69 % 1026,9 hPa 0,0 l/m 0 min 0 min 0 W/m 0,0 km/h (0 Bft) 100,00 %
08.05.2022 22:50 14,4 C 12,8 C 9,4 C 68 % 1026,9 hPa 0,0 l/m 0 min 0 min 0 W/m 0,0 km/h (0 Bft) 100,00 %
08.05.2022 22:52 14,4 C 12,8 C 9,4 C 69 % 1026,9 hPa 0,0 l/m 0 min 0 min 0 W/m 0,0 km/h (0 Bft) 100,00 %
08.05.2022 22:54 14,4 C 12,8 C 9,4 C 70 % 1026,9 hPa 0,0 l/m 0 min 0 min 0 W/m 0,0 km/h (0 Bft) 100,00 %
08.05.2022 22:56 14,3 C 12,8 C 9,4 C 70 % 1027,0 hPa 0,0 l/m 0 min 0 min 0 W/m 0,0 km/h (0 Bft) 100,00 %
08.05.2022 22:58 14,3 C 12,8 C 8,9 C 71 % 1027,0 hPa 0,0 l/m 0 min 0 min 0 W/m 0,0 km/h (0 Bft) 100,00 %
08.05.2022 23:00 14,3 C 12,8 C 8,9 C 71 % 1027,0 hPa 0,0 l/m 0 min 0 min 0 W/m 0,0 km/h (0 Bft) 100,00 %
08.05.2022 23:02 14,3 C 12,8 C 8,9 C 72 % 1027,0 hPa 0,0 l/m 0 min 0 min 0 W/m 0,0 km/h (0 Bft) 100,00 %
08.05.2022 23:04 14,3 C 12,2 C 8,9 C 72 % 1027,0 hPa 0,0 l/m 0 min 0 min 0 W/m 0,0 km/h (0 Bft) 100,00 %
08.05.2022 23:06 14,3 C 12,2 C 8,9 C 72 % 1027,0 hPa 0,0 l/m 0 min 0 min 0 W/m 0,0 km/h (0 Bft) 97,87 %
08.05.2022 23:08 14,3 C 12,2 C 8,9 C 72 % 1027,0 hPa 0,0 l/m 0 min 0 min 0 W/m 0,0 km/h (0 Bft) 97,87 %
08.05.2022 23:10 14,2 C 12,2 C 8,9 C 73 % 1027,0 hPa 0,0 l/m 0 min 0 min 0 W/m 0,0 km/h (0 Bft) 97,87 %
08.05.2022 23:12 14,1 C 12,2 C 8,9 C 73 % 1027,0 hPa 0,0 l/m 0 min 0 min 0 W/m 0,0 km/h (0 Bft) 100,00 %
08.05.2022 23:14 14,1 C 12,2 C 8,9 C 73 % 1027,0 hPa 0,0 l/m 0 min 0 min 0 W/m 0,0 km/h (0 Bft) 100,00 %
08.05.2022 23:16 14,0 C 12,2 C 8,9 C 73 % 1027,0 hPa 0,0 l/m 0 min 0 min 0 W/m 0,0 km/h (0 Bft) 100,00 %
08.05.2022 23:18 13,9 C 12,2 C 8,9 C 74 % 1027,0 hPa 0,0 l/m 0 min 0 min 0 W/m 0,0 km/h (0 Bft) 97,87 %
08.05.2022 23:20 13,9 C 12,2 C 8,9 C 75 % 1027,0 hPa 0,0 l/m 0 min 0 min 0 W/m 0,0 km/h (0 Bft) 100,00 %
08.05.2022 23:22 13,8 C 11,7 C 8,9 C 75 % 1026,9 hPa 0,0 l/m 0 min 0 min 0 W/m 0,0 km/h (0 Bft) 100,00 %
08.05.2022 23:24 13,8 C 11,7 C 8,9 C 75 % 1027,0 hPa 0,0 l/m 0 min 0 min 0 W/m 0,0 km/h (0 Bft) 100,00 %
08.05.2022 23:26 13,7 C 11,7 C 8,9 C 75 % 1026,9 hPa 0,0 l/m 0 min 0 min 0 W/m 0,0 km/h (0 Bft) 100,00 %
08.05.2022 23:28 13,6 C 11,7 C 8,3 C 75 % 1026,9 hPa 0,0 l/m 0 min 0 min 0 W/m 0,0 km/h (0 Bft) 97,87 %
08.05.2022 23:30 13,6 C 11,7 C 8,3 C 76 % 1026,9 hPa 0,0 l/m 0 min 0 min 0 W/m 0,0 km/h (0 Bft) 97,87 %
08.05.2022 23:32 13,5 C 11,7 C 8,3 C 76 % 1026,9 hPa 0,0 l/m 0 min 0 min 0 W/m 0,0 km/h (0 Bft) 100,00 %
08.05.2022 23:34 13,4 C 11,7 C 8,3 C 76 % 1026,9 hPa 0,0 l/m 0 min 0 min 0 W/m 0,0 km/h (0 Bft) 97,87 %
08.05.2022 23:36 13,3 C 11,7 C 8,3 C 76 % 1027,0 hPa 0,0 l/m 0 min 0 min 0 W/m 0,0 km/h (0 Bft) 97,87 %
08.05.2022 23:38 13,3 C 11,7 C 8,3 C 76 % 1027,0 hPa 0,0 l/m 0 min 0 min 0 W/m 0,0 km/h (0 Bft) 97,83 %
08.05.2022 23:40 13,2 C 11,7 C 8,3 C 76 % 1026,9 hPa 0,0 l/m 0 min 0 min 0 W/m 0,0 km/h (0 Bft) 97,87 %
08.05.2022 23:42 13,2 C 11,7 C 8,3 C 76 % 1027,0 hPa 0,0 l/m 0 min 0 min 0 W/m 0,0 km/h (0 Bft) 97,87 %
08.05.2022 23:44 13,1 C 11,7 C 8,3 C 76 % 1026,9 hPa 0,0 l/m 0 min 0 min 0 W/m 0,0 km/h (0 Bft) 97,87 %
08.05.2022 23:46 13,0 C 11,7 C 8,3 C 76 % 1026,9 hPa 0,0 l/m 0 min 0 min 0 W/m 0,0 km/h (0 Bft) 97,87 %
08.05.2022 23:48 13,0 C 11,7 C 8,3 C 76 % 1026,9 hPa 0,0 l/m 0 min 0 min 0 W/m 0,0 km/h (0 Bft) 95,74 %
08.05.2022 23:50 12,9 C 11,1 C 7,8 C 77 % 1027,0 hPa 0,0 l/m 0 min 0 min 0 W/m 0,0 km/h (0 Bft) 97,83 %
08.05.2022 23:52 12,9 C 11,1 C 7,8 C 77 % 1027,0 hPa 0,0 l/m 0 min 0 min 0 W/m 0,0 km/h (0 Bft) 93,62 %
08.05.2022 23:54 12,8 C 11,1 C 7,8 C 77 % 1027,0 hPa 0,0 l/m 0 min 0 min 0 W/m 0,0 km/h (0 Bft) 93,62 %
08.05.2022 23:56 12,8 C 11,1 C 7,8 C 77 % 1027,1 hPa 0,0 l/m 0 min 0 min 0 W/m 0,0 km/h (0 Bft) 91,49 %
08.05.2022 23:58 12,8 C 11,1 C 7,8 C 77 % 1027,1 hPa 0,0 l/m 0 min 0 min 0 W/m 0,0 km/h (0 Bft) 93,62 %
_ Min-Zeit 07:32 06:48 06:52 14:38 00:10 - - - - 00:04 18:10
Minimum _ 10,9 C 10,6 C 7,2 C 49 % 1024,4 hPa - - - - 0,0 km/h (0 Bft) 89,36 %
_ Max-Zeit 17:54 16:48 13:40 01:42 11:14 00:00 12:08 00:00 12:16 10:18 00:00
Maximum _ 21,9 C 28,3 C 21,7 C 93 % 1028,1 hPa 0,0 l/m 4 min 0 min 1048 W/m 35,4 km/h
SO (5 Bft)
100,00 %
Durchschnitt _ 15,7 C 16,8 C 11,9 C 70 % 1026,4 hPa #0,0 l/m #9:18 h #0 min. 433 W/m 10,5 km/h (2 Bft) 97,64 %
© 2022 W. Hausmann